UAE8UW KJFK-OMDB

Flight info

Callsign UAE8UW
Flight time 13h 9m
Altitude 31000
Route GREKI DCT JUDDS DCT MARTN DCT CBIRD DCT TAFFY N693A NEEKO/M085F330 NATQ SOVED/N0488F330 DCT LUTOV DCT MAKUX/N0482F350 DCT SOSIM L15 MOTOX DCT RUCAC DCT LESDO DCT ETINO DCT DEVDI DCT RIPUS DCT RESIA DCT BELOV DCT LATAN DCT SALUN N705 MMA/N0483F370 P751 DASUM Y234 FYM M872 BDB Y214 RAPMA DCT KUVSO DCT KATIT DCT PEKEM M628 RIGIL G783 ELUDA/N0500F350 G783 ASPED Q308 KIPOK Q568 IMPED
Aircraft B77W/H-SDE1E2E3FGHIJ2J3J4J5M1RWXY/LB1D1

Departure

Time 2026-05-09 02:15
Airport John F. Kennedy International Airport (KJFK)

Arrival

Time 2026-05-09 15:25
Airport Dubai International Airport (OMDB)
Time Latitude Longitude Altitude Speed Heading
2026-05-09 00:59 40.64247 -73.77953 26 ft 0 kts 30°
2026-05-09 02:02 40.64231 -73.77965 25 ft 4 kts 30°
2026-05-09 02:02 40.64208 -73.77983 25 ft 4 kts 30°
2026-05-09 02:03 40.64190 -73.77997 25 ft 4 kts 29°
2026-05-09 02:03 40.64166 -73.78014 25 ft 4 kts 22°
2026-05-09 02:03 40.64140 -73.78025 27 ft 4 kts
2026-05-09 02:03 40.64115 -73.78025 26 ft 4 kts 335°
2026-05-09 02:04 40.64094 -73.78010 26 ft 4 kts 331°
2026-05-09 02:04 40.64070 -73.77993 25 ft 4 kts 331°
2026-05-09 02:04 40.64051 -73.77979 26 ft 4 kts 321°
2026-05-09 02:04 40.64034 -73.77953 25 ft 4 kts 295°
2026-05-09 02:05 40.64026 -73.77927 26 ft 4 kts 290°
2026-05-09 02:05 40.64015 -73.77895 25 ft 4 kts 309°
2026-05-09 02:05 40.63999 -73.77877 25 ft 4 kts 330°
2026-05-09 02:05 40.63975 -73.77860 26 ft 4 kts 330°
2026-05-09 02:06 40.63953 -73.77843 27 ft 3 kts 330°
2026-05-09 02:06 40.63933 -73.77823 25 ft 4 kts 296°
2026-05-09 02:06 40.63930 -73.77791 24 ft 4 kts 249°
2026-05-09 02:07 40.63955 -73.77731 25 ft 4 kts 241°
2026-05-09 02:07 40.63957 -73.77724 25 ft 2 kts 241°
2026-05-09 02:09 40.63947 -73.77749 25 ft 11 kts 241°
2026-05-09 02:09 40.63922 -73.77808 26 ft 6 kts 241°
2026-05-09 02:09 40.63900 -73.77859 27 ft 6 kts 241°
2026-05-09 02:09 40.63872 -73.77912 28 ft 7 kts 218°
2026-05-09 02:10 40.63822 -73.77922 27 ft 7 kts 178°
2026-05-09 02:10 40.63731 -73.77906 27 ft 18 kts 173°
2026-05-09 02:10 40.63634 -73.77890 28 ft 11 kts 171°
2026-05-09 02:10 40.63569 -73.77841 27 ft 11 kts 130°
2026-05-09 02:11 40.63585 -73.77770 29 ft 9 kts 40°
2026-05-09 02:11 40.63664 -73.77687 28 ft 16 kts 63°
2026-05-09 02:11 40.63651 -73.77607 30 ft 9 kts 133°
2026-05-09 02:11 40.63613 -73.77541 26 ft 11 kts 120°
2026-05-09 02:12 40.63550 -73.77404 28 ft 25 kts 121°
2026-05-09 02:12 40.63460 -73.77206 29 ft 25 kts 121°
2026-05-09 02:12 40.63370 -73.77009 26 ft 22 kts 121°
2026-05-09 02:12 40.63293 -73.76949 26 ft 13 kts 175°
2026-05-09 02:13 40.63180 -73.76952 27 ft 20 kts 185°
2026-05-09 02:13 40.63037 -73.77017 30 ft 21 kts 209°
2026-05-09 02:13 40.62931 -73.77098 28 ft 17 kts 210°
2026-05-09 02:13 40.62845 -73.77165 28 ft 7 kts 210°
2026-05-09 02:14 40.62822 -73.77215 28 ft 7 kts 285°
2026-05-09 02:14 40.62842 -73.77270 29 ft 0 kts 300°
2026-05-09 02:14 40.62844 -73.77274 29 ft 4 kts 300°
2026-05-09 02:14 40.62915 -73.77432 32 ft 51 kts 301°
2026-05-09 02:15 40.63245 -73.78161 27 ft 134 kts 301°
2026-05-09 02:15 40.63858 -73.79518 28 ft 208 kts 300°
2026-05-09 02:15 40.64631 -73.81227 711 ft 221 kts 300°
2026-05-09 02:15 40.65419 -73.82931 1976 ft 213 kts 298°
2026-05-09 02:16 40.65850 -73.84767 2555 ft 217 kts 268°
2026-05-09 02:16 40.65335 -73.86553 2931 ft 215 kts 227°
2026-05-09 02:16 40.64031 -73.87569 3309 ft 227 kts 194°
2026-05-09 02:16 40.62428 -73.87515 3629 ft 240 kts 165°
2026-05-09 02:17 40.60951 -73.86416 3960 ft 252 kts 136°
2026-05-09 02:17 40.59852 -73.84590 4345 ft 259 kts 127°
2026-05-09 02:17 40.58830 -73.82579 4665 ft 272 kts 127°
2026-05-09 02:17 40.57740 -73.80465 4988 ft 283 kts 128°
2026-05-09 02:18 40.56622 -73.78330 5509 ft 287 kts 129°
2026-05-09 02:18 40.55487 -73.76115 5965 ft 298 kts 126°
2026-05-09 02:18 40.54379 -73.73755 6383 ft 307 kts 126°
2026-05-09 02:18 40.53262 -73.71324 6806 ft 314 kts 117°
2026-05-09 02:19 40.52701 -73.68490 7191 ft 327 kts 91°
2026-05-09 02:19 40.53031 -73.65551 7800 ft 326 kts 67°
2026-05-09 02:19 40.54123 -73.62959 8307 ft 324 kts 45°
2026-05-09 02:19 40.55734 -73.60940 8848 ft 318 kts 31°
2026-05-09 02:20 40.57502 -73.59180 9379 ft 319 kts 27°
2026-05-09 02:20 40.59468 -73.57897 9588 ft 316 kts
2026-05-09 02:20 40.61582 -73.57353 10192 ft 305 kts 360°
2026-05-09 02:20 40.63685 -73.56943 10731 ft 311 kts 360°
2026-05-09 02:21 40.65899 -73.56477 10864 ft 332 kts
2026-05-09 02:21 40.68240 -73.55918 11034 ft 352 kts
2026-05-09 02:21 40.70707 -73.55268 11257 ft 370 kts
2026-05-09 02:21 40.73258 -73.54544 11779 ft 378 kts
2026-05-09 02:22 40.75839 -73.53778 12440 ft 382 kts
2026-05-09 02:22 40.78428 -73.52989 13173 ft 383 kts
2026-05-09 02:22 40.81030 -73.52188 13879 ft 387 kts
2026-05-09 02:22 40.83667 -73.51377 14415 ft 391 kts
2026-05-09 02:23 40.85430 -73.50834 14810 ft 394 kts
2026-05-09 02:23 40.88108 -73.50009 15415 ft 397 kts
2026-05-09 02:23 40.90805 -73.49177 16012 ft 400 kts
2026-05-09 02:23 40.93530 -73.48337 16643 ft 403 kts
2026-05-09 02:24 40.96273 -73.47490 17266 ft 406 kts
2026-05-09 02:24 40.99035 -73.46638 17876 ft 410 kts
2026-05-09 02:24 41.01806 -73.45782 18470 ft 413 kts
2026-05-09 02:24 41.04617 -73.44913 18999 ft 416 kts
2026-05-09 02:25 41.07439 -73.44040 19526 ft 418 kts
2026-05-09 02:25 41.10284 -73.43159 20052 ft 421 kts
2026-05-09 02:25 41.13145 -73.42273 20562 ft 424 kts
2026-05-09 02:25 41.16029 -73.41378 21084 ft 427 kts
2026-05-09 02:26 41.18929 -73.40478 21599 ft 430 kts
2026-05-09 02:26 41.21856 -73.39570 22110 ft 434 kts
2026-05-09 02:26 41.24806 -73.38653 22570 ft 437 kts
2026-05-09 02:26 41.27774 -73.37729 23050 ft 440 kts
2026-05-09 02:27 41.30766 -73.36795 23532 ft 443 kts
2026-05-09 02:27 41.33779 -73.35854 23937 ft 446 kts
2026-05-09 02:27 41.36803 -73.34908 24338 ft 448 kts
2026-05-09 02:27 41.39841 -73.33957 24764 ft 450 kts
2026-05-09 02:28 41.42895 -73.33002 25145 ft 452 kts
2026-05-09 02:28 41.45933 -73.31761 25444 ft 466 kts 14°
2026-05-09 02:28 41.48861 -73.29733 25771 ft 482 kts 24°
2026-05-09 02:28 41.51568 -73.26996 26153 ft 496 kts 35°
2026-05-09 02:29 41.54004 -73.23687 26515 ft 503 kts 39°
2026-05-09 02:29 41.56413 -73.20281 26807 ft 506 kts 38°
2026-05-09 02:29 41.58886 -73.16916 26942 ft 509 kts 36°
2026-05-09 02:29 41.61594 -73.14011 26990 ft 490 kts 20°
2026-05-09 02:30 41.64660 -73.12313 27007 ft 467 kts
2026-05-09 02:30 41.67807 -73.11626 26993 ft 451 kts 353°
2026-05-09 02:30 41.70863 -73.11836 26988 ft 432 kts 342°
2026-05-09 02:30 41.73838 -73.12419 27032 ft 433 kts 343°
2026-05-09 02:31 41.76834 -73.12984 27300 ft 438 kts 343°
2026-05-09 02:31 41.79873 -73.13539 27524 ft 442 kts 343°
2026-05-09 02:31 41.82932 -73.14079 27859 ft 444 kts 343°
2026-05-09 02:31 41.86001 -73.14608 28250 ft 445 kts 343°
2026-05-09 02:32 41.89082 -73.15133 28607 ft 446 kts 343°
2026-05-09 02:32 41.92167 -73.15658 28889 ft 448 kts 343°
2026-05-09 02:32 41.95266 -73.16185 29137 ft 451 kts 343°
2026-05-09 02:32 41.98386 -73.16717 29437 ft 452 kts 343°
2026-05-09 02:33 42.01509 -73.17250 29676 ft 454 kts 343°
2026-05-09 02:33 42.04645 -73.17785 29925 ft 455 kts 343°
2026-05-09 02:33 42.07799 -73.18324 29955 ft 457 kts 343°
2026-05-09 02:34 42.14070 -73.19391 29964 ft 451 kts 343°
2026-05-09 02:34 42.20286 -73.20456 29985 ft 451 kts 343°
2026-05-09 02:35 42.26504 -73.21527 29983 ft 450 kts 343°
2026-05-09 02:35 42.32724 -73.22602 29984 ft 451 kts 343°
2026-05-09 02:35 42.35849 -73.23145 30099 ft 454 kts 343°
2026-05-09 02:36 42.38986 -73.23688 30406 ft 454 kts 343°
2026-05-09 02:36 42.42118 -73.24229 30725 ft 454 kts 343°
2026-05-09 02:36 42.45251 -73.24771 30898 ft 456 kts 343°
2026-05-09 02:37 42.51604 -73.25876 30970 ft 465 kts 343°
2026-05-09 02:37 42.54861 -73.26185 30952 ft 479 kts 354°
2026-05-09 02:37 42.58220 -73.25508 30998 ft 498 kts
2026-05-09 02:37 42.61549 -73.23929 31005 ft 518 kts 17°
2026-05-09 02:38 42.64695 -73.21397 31014 ft 531 kts 25°
2026-05-09 02:38 42.70822 -73.15605 31002 ft 541 kts 27°
2026-05-09 02:39 42.77004 -73.09696 31004 ft 545 kts 27°
2026-05-09 02:39 42.83224 -73.03874 30970 ft 546 kts 26°
2026-05-09 02:40 42.89508 -72.98058 30980 ft 547 kts 26°
2026-05-09 02:40 42.95803 -72.92232 30997 ft 546 kts 26°
2026-05-09 02:41 43.02061 -72.86415 30973 ft 544 kts 26°
2026-05-09 02:41 43.08304 -72.80589 30971 ft 542 kts 26°
2026-05-09 02:42 43.14522 -72.74773 30990 ft 541 kts 27°
2026-05-09 02:42 43.20732 -72.68954 30974 ft 540 kts 27°
2026-05-09 02:43 43.26925 -72.63135 30962 ft 540 kts 27°
2026-05-09 02:43 43.33111 -72.57308 30985 ft 539 kts 27°
2026-05-09 02:44 43.39288 -72.51474 30957 ft 538 kts 27°
2026-05-09 02:44 43.45453 -72.45637 30978 ft 538 kts 27°
2026-05-09 02:45 43.51622 -72.39779 30952 ft 539 kts 27°
2026-05-09 02:45 43.57795 -72.33904 30940 ft 540 kts 27°
2026-05-09 02:46 43.63973 -72.28013 30972 ft 540 kts 28°
2026-05-09 02:46 43.70151 -72.22102 30957 ft 540 kts 28°
2026-05-09 02:47 43.76320 -72.16186 30923 ft 539 kts 28°
2026-05-09 02:47 43.82478 -72.10265 30926 ft 539 kts 28°
2026-05-09 02:48 43.88624 -72.04341 30929 ft 538 kts 28°
2026-05-09 02:48 43.94670 -71.98498 30963 ft 537 kts 29°
2026-05-09 02:49 44.00787 -71.92572 30939 ft 536 kts 29°
2026-05-09 02:49 44.06901 -71.86633 30942 ft 536 kts 29°
2026-05-09 02:50 44.13005 -71.80688 30961 ft 535 kts 29°
2026-05-09 02:50 44.19096 -71.74743 30942 ft 535 kts 29°
2026-05-09 02:51 44.25181 -71.68786 30947 ft 534 kts 29°
2026-05-09 02:51 44.31259 -71.62821 30958 ft 534 kts 29°
2026-05-09 02:52 44.37330 -71.56848 30935 ft 533 kts 29°
2026-05-09 02:52 44.43386 -71.50875 30954 ft 533 kts 30°
2026-05-09 02:53 44.49437 -71.44890 30948 ft 533 kts 30°
2026-05-09 02:53 44.55491 -71.38887 30948 ft 533 kts 30°
2026-05-09 02:54 44.61532 -71.32882 30945 ft 532 kts 30°
2026-05-09 02:54 44.67572 -71.26860 30948 ft 532 kts 30°
2026-05-09 02:55 44.73606 -71.20829 30941 ft 532 kts 30°
2026-05-09 02:55 44.79595 -71.14828 30963 ft 532 kts 30°
2026-05-09 02:56 44.85507 -71.08542 30943 ft 536 kts 36°
2026-05-09 02:56 44.90862 -71.01152 30946 ft 539 kts 40°
2026-05-09 02:57 44.96035 -70.93719 30958 ft 540 kts 40°
2026-05-09 02:57 45.01309 -70.86188 30935 ft 540 kts 40°
2026-05-09 02:58 45.06610 -70.78678 30930 ft 539 kts 40°
2026-05-09 02:58 45.11916 -70.71165 30928 ft 539 kts 40°
2026-05-09 02:59 45.17210 -70.63645 30928 ft 539 kts 40°
2026-05-09 02:59 45.22505 -70.56097 30927 ft 539 kts 40°
2026-05-09 03:00 45.27787 -70.48544 30948 ft 539 kts 40°
2026-05-09 03:00 45.33068 -70.40970 30928 ft 540 kts 40°
2026-05-09 03:01 45.38350 -70.33375 30926 ft 540 kts 40°
2026-05-09 03:01 45.43620 -70.25776 30926 ft 540 kts 40°
2026-05-09 03:02 45.48893 -70.18150 30920 ft 540 kts 40°
2026-05-09 03:02 45.54169 -70.10500 30908 ft 541 kts 40°
2026-05-09 03:03 45.59432 -70.02845 30915 ft 540 kts 40°
2026-05-09 03:03 45.64621 -69.95277 30893 ft 541 kts 40°
2026-05-09 03:04 45.69873 -69.87594 30892 ft 540 kts 40°
2026-05-09 03:04 45.75122 -69.79895 30907 ft 540 kts 40°
2026-05-09 03:05 45.80363 -69.72185 30909 ft 540 kts 41°
2026-05-09 03:05 45.85597 -69.64464 30905 ft 540 kts 41°
2026-05-09 03:06 45.90821 -69.56735 30904 ft 539 kts 41°
2026-05-09 03:06 45.96037 -69.48996 30929 ft 539 kts 41°
2026-05-09 03:07 46.00367 -69.42555 30915 ft 539 kts 41°
2026-05-09 03:07 46.06417 -69.33528 30907 ft 539 kts 41°
2026-05-09 03:08 46.11614 -69.25750 30930 ft 539 kts 42°
2026-05-09 03:08 46.15964 -69.19222 30914 ft 539 kts 42°
2026-05-09 03:09 46.21149 -69.11420 30915 ft 538 kts 42°
2026-05-09 03:09 46.26323 -69.03612 30912 ft 538 kts 42°
2026-05-09 03:10 46.31426 -68.95890 30917 ft 538 kts 43°
2026-05-09 03:10 46.36587 -68.88057 30900 ft 537 kts 43°
2026-05-09 03:11 46.41700 -68.80272 30893 ft 537 kts 43°
2026-05-09 03:11 46.46845 -68.72419 30888 ft 537 kts 43°
2026-05-09 03:12 46.51977 -68.64560 30899 ft 536 kts 43°
2026-05-09 03:12 46.57100 -68.56693 30876 ft 536 kts 43°
2026-05-09 03:13 46.64774 -68.44864 30884 ft 536 kts 44°
2026-05-09 03:13 46.69881 -68.36964 30891 ft 535 kts 44°
2026-05-09 03:14 46.74979 -68.29054 30892 ft 535 kts 44°
2026-05-09 03:14 46.80070 -68.21130 30870 ft 535 kts 44°
2026-05-09 03:15 46.85154 -68.13195 30861 ft 535 kts 44°
2026-05-09 03:15 46.90236 -68.05239 30863 ft 535 kts 44°
2026-05-09 03:16 46.95238 -67.97384 30872 ft 535 kts 45°
2026-05-09 03:16 47.00307 -67.89402 30866 ft 536 kts 45°
2026-05-09 03:17 47.05373 -67.81400 30862 ft 536 kts 45°
2026-05-09 03:17 47.10434 -67.73381 30871 ft 536 kts 45°
2026-05-09 03:18 47.15494 -67.65340 30864 ft 536 kts 45°
2026-05-09 03:18 47.20545 -67.57288 30863 ft 536 kts 45°
2026-05-09 03:19 47.25589 -67.49223 30860 ft 535 kts 46°
2026-05-09 03:19 47.30586 -67.41209 30862 ft 535 kts 46°
2026-05-09 03:20 47.35614 -67.33123 30861 ft 535 kts 46°
2026-05-09 03:20 47.40447 -67.24768 30858 ft 535 kts 50°
2026-05-09 03:21 47.45052 -67.16140 30870 ft 535 kts 51°
2026-05-09 03:21 47.49635 -67.07465 30855 ft 535 kts 51°
2026-05-09 03:22 47.54160 -66.98941 30857 ft 535 kts 51°
2026-05-09 03:22 47.58766 -66.90284 30858 ft 535 kts 51°
2026-05-09 03:23 47.63365 -66.81624 30859 ft 535 kts 51°
2026-05-09 03:23 47.67957 -66.72942 30855 ft 535 kts 51°
2026-05-09 03:24 47.72544 -66.64239 30841 ft 534 kts 51°
2026-05-09 03:24 47.77115 -66.55537 30863 ft 534 kts 51°
2026-05-09 03:25 47.81680 -66.46819 30849 ft 534 kts 51°
2026-05-09 03:25 47.86236 -66.38090 30847 ft 534 kts 51°
2026-05-09 03:26 47.90780 -66.29357 30847 ft 533 kts 51°
2026-05-09 03:26 47.95291 -66.20661 30850 ft 533 kts 51°
2026-05-09 03:27 47.99820 -66.11900 30857 ft 533 kts 51°
2026-05-09 03:27 48.04338 -66.03133 30857 ft 533 kts 51°
2026-05-09 03:28 48.08785 -65.94476 30864 ft 533 kts 52°
2026-05-09 03:28 48.13290 -65.85677 30854 ft 533 kts 52°
2026-05-09 03:29 48.17787 -65.76865 30847 ft 533 kts 52°
2026-05-09 03:29 48.22280 -65.68034 30844 ft 533 kts 52°
2026-05-09 03:30 48.26765 -65.59186 30851 ft 532 kts 52°
2026-05-09 03:30 48.31239 -65.50335 30838 ft 532 kts 52°
2026-05-09 03:31 48.35706 -65.41467 30836 ft 532 kts 52°
2026-05-09 03:31 48.40162 -65.32594 30837 ft 531 kts 52°
2026-05-09 03:32 48.44610 -65.23704 30841 ft 531 kts 52°
2026-05-09 03:32 48.49032 -65.14837 30844 ft 531 kts 52°
2026-05-09 03:33 48.53462 -65.05927 30843 ft 531 kts 52°
2026-05-09 03:33 48.57829 -64.97116 30844 ft 531 kts 52°
2026-05-09 03:34 48.62244 -64.88177 30838 ft 531 kts 52°
2026-05-09 03:34 48.66652 -64.79221 30832 ft 531 kts 52°
2026-05-09 03:35 48.71052 -64.70254 30823 ft 530 kts 52°
2026-05-09 03:35 48.75399 -64.61364 30826 ft 530 kts 53°
2026-05-09 03:36 48.79781 -64.52374 31227 ft 528 kts 53°
2026-05-09 03:36 48.81956 -64.47899 31451 ft 527 kts 53°
2026-05-09 03:36 48.84129 -64.43421 31577 ft 528 kts 53°
2026-05-09 03:37 48.88488 -64.34418 31787 ft 530 kts 53°
2026-05-09 03:37 48.90642 -64.29960 31938 ft 530 kts 53°
2026-05-09 03:37 48.92850 -64.25381 32057 ft 530 kts 54°
2026-05-09 03:38 48.95001 -64.20910 32192 ft 531 kts 54°
2026-05-09 03:38 48.97181 -64.16374 32310 ft 532 kts 54°
2026-05-09 03:38 48.99363 -64.11826 32428 ft 532 kts 54°
2026-05-09 03:38 49.01462 -64.07441 32559 ft 532 kts 54°
2026-05-09 03:39 49.05749 -63.98466 32722 ft 534 kts 54°
2026-05-09 03:39 49.10126 -63.89273 32815 ft 536 kts 55°
2026-05-09 03:40 49.14501 -63.80053 32809 ft 536 kts 55°
2026-05-09 03:40 49.18858 -63.70837 32810 ft 534 kts 55°
2026-05-09 03:41 49.23200 -63.61622 32813 ft 534 kts 55°
2026-05-09 03:41 49.27530 -63.52400 32804 ft 533 kts 55°
2026-05-09 03:42 49.31825 -63.43224 32809 ft 533 kts 56°
2026-05-09 03:42 49.36137 -63.33978 32806 ft 533 kts 56°
2026-05-09 03:43 49.40443 -63.24713 32800 ft 533 kts 56°
2026-05-09 03:43 49.44746 -63.15420 32799 ft 534 kts 56°
2026-05-09 03:44 49.49044 -63.06109 32784 ft 534 kts 56°
2026-05-09 03:44 49.53263 -62.96936 32781 ft 535 kts 57°
2026-05-09 03:45 49.57552 -62.87577 32791 ft 535 kts 57°
2026-05-09 03:45 49.61841 -62.78184 32784 ft 536 kts 57°
2026-05-09 03:46 49.66135 -62.68750 32774 ft 537 kts 57°
2026-05-09 03:46 49.70422 -62.59297 32773 ft 538 kts 58°
2026-05-09 03:47 49.74705 -62.49819 32774 ft 538 kts 58°
2026-05-09 03:47 49.78980 -62.40323 32766 ft 538 kts 58°
2026-05-09 03:48 49.83251 -62.30802 32768 ft 538 kts 58°
2026-05-09 03:48 49.87514 -62.21267 32755 ft 538 kts 58°
2026-05-09 03:49 49.91765 -62.11721 32740 ft 538 kts 59°
2026-05-09 03:49 49.96011 -62.02152 32759 ft 538 kts 59°
2026-05-09 03:50 50.00176 -61.92736 32758 ft 539 kts 59°
2026-05-09 03:50 50.04417 -61.83112 32758 ft 539 kts 59°
2026-05-09 03:51 50.08651 -61.73469 32760 ft 540 kts 59°
2026-05-09 03:51 50.12852 -61.63864 32757 ft 540 kts 59°
2026-05-09 03:52 50.17075 -61.54175 32741 ft 540 kts 60°
2026-05-09 03:52 50.21290 -61.44470 32753 ft 540 kts 60°
2026-05-09 03:53 50.25493 -61.34753 32752 ft 540 kts 60°
2026-05-09 03:53 50.29693 -61.25009 32744 ft 540 kts 60°
2026-05-09 03:54 50.33884 -61.15251 32732 ft 540 kts 60°
2026-05-09 03:54 50.38068 -61.05475 32733 ft 540 kts 61°
2026-05-09 03:55 50.42171 -60.95847 32737 ft 541 kts 61°
2026-05-09 03:55 50.46343 -60.86021 32732 ft 541 kts 62°
2026-05-09 03:56 50.50508 -60.76179 32721 ft 542 kts 62°
2026-05-09 03:56 50.54638 -60.66393 32718 ft 531 kts 62°
2026-05-09 03:57 50.58695 -60.56738 32727 ft 528 kts 62°
2026-05-09 03:57 50.62050 -60.48713 32734 ft 528 kts 62°
2026-05-09 03:58 50.66078 -60.39049 32713 ft 528 kts 63°
2026-05-09 03:58 50.70099 -60.29373 32718 ft 528 kts 63°
2026-05-09 03:59 50.74116 -60.19671 32729 ft 528 kts 63°
2026-05-09 03:59 50.78129 -60.09941 32723 ft 529 kts 63°
2026-05-09 04:00 50.82136 -60.00193 32717 ft 528 kts 64°
2026-05-09 04:00 50.86090 -59.90539 32718 ft 529 kts 64°
2026-05-09 04:01 50.90082 -59.80749 32724 ft 529 kts 64°
2026-05-09 04:01 50.94071 -59.70933 32718 ft 530 kts 64°
2026-05-09 04:02 50.98050 -59.61113 32713 ft 528 kts 65°
2026-05-09 04:02 51.02004 -59.51306 32714 ft 528 kts 65°
2026-05-09 04:03 51.05949 -59.41485 32706 ft 527 kts 65°
2026-05-09 04:03 51.09883 -59.31656 32714 ft 526 kts 65°
2026-05-09 04:04 51.13716 -59.22043 32718 ft 525 kts 66°
2026-05-09 04:04 51.17621 -59.12216 32709 ft 525 kts 66°
2026-05-09 04:05 51.21513 -59.02384 32673 ft 524 kts 66°
2026-05-09 04:05 51.25328 -58.92706 32705 ft 523 kts 66°
2026-05-09 04:06 51.29195 -58.82858 32701 ft 523 kts 66°
2026-05-09 04:06 51.33056 -58.72988 32731 ft 524 kts 66°
2026-05-09 04:07 51.36922 -58.63067 32713 ft 526 kts 66°
2026-05-09 04:07 51.40785 -58.53120 32711 ft 527 kts 66°
2026-05-09 04:08 51.44647 -58.43137 32718 ft 527 kts 67°
2026-05-09 04:08 51.48501 -58.33132 32724 ft 527 kts 67°
2026-05-09 04:09 51.52353 -58.23094 32720 ft 528 kts 67°
2026-05-09 04:09 51.56198 -58.13035 32722 ft 529 kts 67°
2026-05-09 04:10 51.60036 -58.02957 32729 ft 528 kts 67°
2026-05-09 04:10 51.63802 -57.93034 32683 ft 528 kts 68°
2026-05-09 04:11 51.67616 -57.82939 32720 ft 528 kts 68°
2026-05-09 04:11 51.71422 -57.72821 32724 ft 528 kts 68°
2026-05-09 04:12 51.75198 -57.62745 32732 ft 529 kts 69°
2026-05-09 04:12 51.78999 -57.52560 32734 ft 530 kts 69°
2026-05-09 04:13 51.82796 -57.42349 32718 ft 531 kts 69°
2026-05-09 04:13 51.86588 -57.32113 32738 ft 531 kts 69°
2026-05-09 04:14 51.90373 -57.21856 32712 ft 529 kts 70°
2026-05-09 04:14 51.94135 -57.11618 32735 ft 529 kts 70°
2026-05-09 04:15 51.97886 -57.01363 32738 ft 529 kts 71°
2026-05-09 04:15 52.01559 -56.91283 32738 ft 528 kts 71°
2026-05-09 04:16 52.05288 -56.81010 32654 ft 528 kts 71°
2026-05-09 04:16 52.09008 -56.70721 32748 ft 528 kts 71°
2026-05-09 04:17 52.12725 -56.60386 32749 ft 531 kts 71°
2026-05-09 04:17 52.16452 -56.49984 32748 ft 533 kts 71°
2026-05-09 04:18 52.20186 -56.39531 32731 ft 534 kts 72°
2026-05-09 04:18 52.23920 -56.29034 32740 ft 536 kts 72°
2026-05-09 04:19 52.27649 -56.18502 32751 ft 536 kts 72°
2026-05-09 04:19 52.31375 -56.07937 32751 ft 537 kts 72°
2026-05-09 04:20 52.35033 -55.97522 32696 ft 536 kts 72°
2026-05-09 04:20 52.38727 -55.86961 32741 ft 535 kts 72°
2026-05-09 04:21 52.42314 -55.76338 32745 ft 530 kts 75°
2026-05-09 04:22 52.47206 -55.60161 32739 ft 527 kts 77°
2026-05-09 04:22 52.50426 -55.49427 32741 ft 529 kts 76°
2026-05-09 04:23 52.53709 -55.38600 32730 ft 531 kts 76°
2026-05-09 04:23 52.57015 -55.27721 32733 ft 533 kts 76°
2026-05-09 04:24 52.60322 -55.16791 32735 ft 534 kts 76°
2026-05-09 04:24 52.63622 -55.05828 32703 ft 535 kts 76°
2026-05-09 04:25 52.66866 -54.94999 32709 ft 535 kts 76°
2026-05-09 04:25 52.70145 -54.83995 32720 ft 535 kts 76°
2026-05-09 04:26 52.73413 -54.72975 32717 ft 534 kts 76°
2026-05-09 04:26 52.76668 -54.61951 32599 ft 534 kts 76°
2026-05-09 04:27 52.79905 -54.50934 32699 ft 533 kts 76°
2026-05-09 04:27 52.83134 -54.39892 32711 ft 534 kts 76°
2026-05-09 04:28 52.86361 -54.28801 32716 ft 536 kts 76°
2026-05-09 04:28 52.89589 -54.17658 32664 ft 537 kts 76°
2026-05-09 04:29 52.92812 -54.06490 32692 ft 538 kts 75°
2026-05-09 04:29 52.95977 -53.95466 32693 ft 538 kts 76°
2026-05-09 04:30 52.99179 -53.84262 32700 ft 537 kts 76°
2026-05-09 04:30 53.02341 -53.73143 32688 ft 537 kts 76°
2026-05-09 04:31 53.05515 -53.61930 32687 ft 536 kts 76°
2026-05-09 04:31 53.08670 -53.50726 32620 ft 535 kts 76°
2026-05-09 04:32 53.11806 -53.39538 32692 ft 532 kts 75°
2026-05-09 04:32 53.14922 -53.28369 32684 ft 532 kts 76°
2026-05-09 04:33 53.18025 -53.17187 32683 ft 531 kts 76°
2026-05-09 04:33 53.21114 -53.06004 32689 ft 531 kts 76°
2026-05-09 04:34 53.24150 -52.94958 32696 ft 531 kts 76°
2026-05-09 04:34 53.27220 -52.83737 32683 ft 531 kts 76°
2026-05-09 04:35 53.30278 -52.72506 32633 ft 531 kts 76°
2026-05-09 04:35 53.33324 -52.61271 32681 ft 530 kts 76°
2026-05-09 04:36 53.36351 -52.50044 32685 ft 529 kts 76°
2026-05-09 04:36 53.39365 -52.38810 32617 ft 528 kts 76°
2026-05-09 04:37 53.42359 -52.27592 32681 ft 527 kts 76°
2026-05-09 04:37 53.45341 -52.16375 32690 ft 526 kts 76°
2026-05-09 04:38 53.48310 -52.05138 32694 ft 527 kts 76°
2026-05-09 04:38 53.51227 -51.94044 32692 ft 528 kts 76°
2026-05-09 04:39 53.54184 -51.82748 32695 ft 528 kts 76°
2026-05-09 04:39 53.57135 -51.71418 32677 ft 529 kts 76°
2026-05-09 04:40 53.60076 -51.60070 32698 ft 530 kts 76°
2026-05-09 04:40 53.63014 -51.48673 32702 ft 531 kts 76°
2026-05-09 04:41 53.65947 -51.37243 32699 ft 532 kts 76°
2026-05-09 04:41 53.68872 -51.25786 32674 ft 532 kts 76°
2026-05-09 04:42 53.71778 -51.14343 32697 ft 529 kts 75°
2026-05-09 04:42 53.74667 -51.02915 32702 ft 528 kts 76°
2026-05-09 04:43 53.77471 -50.91757 32711 ft 528 kts 76°
2026-05-09 04:43 53.80328 -50.80329 32715 ft 527 kts 76°
2026-05-09 04:44 53.83170 -50.68906 32707 ft 526 kts 76°
2026-05-09 04:44 53.86001 -50.57466 32718 ft 527 kts 76°
2026-05-09 04:45 53.88364 -50.47870 32724 ft 527 kts 76°
2026-05-09 04:45 53.91177 -50.36390 32724 ft 528 kts 76°
2026-05-09 04:46 53.93985 -50.24877 32692 ft 528 kts 76°
2026-05-09 04:46 53.96778 -50.13363 32728 ft 528 kts 76°
2026-05-09 04:47 53.99563 -50.01825 32703 ft 528 kts 75°
2026-05-09 04:47 54.02352 -49.90483 32733 ft 529 kts 74°
2026-05-09 04:48 54.05241 -49.79059 32747 ft 529 kts 74°
2026-05-09 04:48 54.08144 -49.67543 32732 ft 530 kts 74°
2026-05-09 04:49 54.11026 -49.55982 32757 ft 530 kts 74°
2026-05-09 04:49 54.13891 -49.44387 32765 ft 531 kts 74°
2026-05-09 04:50 54.16752 -49.32747 32756 ft 532 kts 74°
2026-05-09 04:50 54.19604 -49.21084 32747 ft 532 kts 74°
2026-05-09 04:51 54.22447 -49.09403 32766 ft 533 kts 74°
2026-05-09 04:51 54.25237 -48.97874 32782 ft 534 kts 75°
2026-05-09 04:52 54.28064 -48.86131 32779 ft 534 kts 75°
2026-05-09 04:52 54.30880 -48.74370 32790 ft 534 kts 75°
2026-05-09 04:53 54.33685 -48.62591 32795 ft 534 kts 75°
2026-05-09 04:53 54.36477 -48.50805 32800 ft 533 kts 75°
2026-05-09 04:54 54.39256 -48.39006 32797 ft 533 kts 75°
2026-05-09 04:54 54.42002 -48.27286 32800 ft 533 kts 75°
2026-05-09 04:55 54.44753 -48.15475 32792 ft 532 kts 75°
2026-05-09 04:55 54.47488 -48.03669 32809 ft 532 kts 75°
2026-05-09 04:56 54.50169 -47.92035 32815 ft 531 kts 75°
2026-05-09 04:56 54.52881 -47.80195 32827 ft 531 kts 75°
2026-05-09 04:57 54.55580 -47.68352 32803 ft 531 kts 75°
2026-05-09 04:57 54.58266 -47.56497 32827 ft 531 kts 75°
2026-05-09 04:58 54.60941 -47.44631 32841 ft 530 kts 75°
2026-05-09 04:58 54.63600 -47.32756 32837 ft 530 kts 75°
2026-05-09 04:59 54.66246 -47.20874 32847 ft 530 kts 75°
2026-05-09 04:59 54.68883 -47.08967 32845 ft 530 kts 75°
2026-05-09 05:00 54.71464 -46.97252 32864 ft 530 kts 75°
2026-05-09 05:00 54.74073 -46.85343 32871 ft 529 kts 75°
2026-05-09 05:01 54.76668 -46.73420 32882 ft 529 kts 75°
2026-05-09 05:01 54.79251 -46.61488 32863 ft 528 kts 75°
2026-05-09 05:02 54.81817 -46.49564 32885 ft 528 kts 75°
2026-05-09 05:02 54.84370 -46.37635 32902 ft 527 kts 75°
2026-05-09 05:03 54.86890 -46.25786 32911 ft 527 kts 75°
2026-05-09 05:03 54.89413 -46.13852 32907 ft 526 kts 75°
2026-05-09 05:04 54.91919 -46.01932 32924 ft 525 kts 75°
2026-05-09 05:04 54.94374 -45.90187 32939 ft 526 kts 75°
2026-05-09 05:05 54.96861 -45.78216 32940 ft 526 kts 75°
2026-05-09 05:05 54.99336 -45.66229 32950 ft 526 kts 75°
2026-05-09 05:06 55.01800 -45.54224 32936 ft 527 kts 75°
2026-05-09 05:06 55.04254 -45.42199 32966 ft 527 kts 75°
2026-05-09 05:07 55.06699 -45.30146 32972 ft 527 kts 75°
2026-05-09 05:07 55.09131 -45.18081 32976 ft 527 kts 75°
2026-05-09 05:08 55.11552 -45.05999 32981 ft 527 kts 75°
2026-05-09 05:08 55.13920 -44.94109 32985 ft 526 kts 75°
2026-05-09 05:09 55.16309 -44.82040 33004 ft 524 kts 75°
2026-05-09 05:09 55.18678 -44.69999 33001 ft 523 kts 75°
2026-05-09 05:10 55.21027 -44.57977 33013 ft 521 kts 75°
2026-05-09 05:10 55.23357 -44.45981 33001 ft 520 kts 75°
2026-05-09 05:11 55.25674 -44.33980 33043 ft 520 kts 75°
2026-05-09 05:11 55.27979 -44.21965 33042 ft 520 kts 75°
2026-05-09 05:12 55.30275 -44.09917 33054 ft 521 kts 75°
2026-05-09 05:12 55.32530 -43.98016 33052 ft 522 kts 75°
2026-05-09 05:13 55.34808 -43.85911 33062 ft 522 kts 75°
2026-05-09 05:13 55.37079 -43.73771 33076 ft 523 kts 75°
2026-05-09 05:14 55.39340 -43.61610 33088 ft 523 kts 75°
2026-05-09 05:14 55.41589 -43.49427 33082 ft 523 kts 75°
2026-05-09 05:15 55.43823 -43.37255 33093 ft 522 kts 75°
2026-05-09 05:15 55.46041 -43.25084 33108 ft 521 kts 75°
2026-05-09 05:16 55.48227 -43.13007 33122 ft 520 kts 75°
2026-05-09 05:16 55.50427 -43.00773 33122 ft 520 kts 75°
2026-05-09 05:17 55.52550 -42.88896 33119 ft 519 kts 76°
2026-05-09 05:17 55.54707 -42.76739 33124 ft 519 kts 75°
2026-05-09 05:18 55.56852 -42.64577 33140 ft 518 kts 75°
2026-05-09 05:18 55.58984 -42.52404 33153 ft 518 kts 75°
2026-05-09 05:19 55.61104 -42.40217 33151 ft 519 kts 76°
2026-05-09 05:19 55.63213 -42.28007 33166 ft 519 kts 76°
2026-05-09 05:20 55.65310 -42.15785 33171 ft 519 kts 75°
2026-05-09 05:20 55.67396 -42.03546 33177 ft 519 kts 75°
2026-05-09 05:21 55.69438 -41.91487 33178 ft 518 kts 75°
2026-05-09 05:21 55.71494 -41.79256 33190 ft 517 kts 75°
2026-05-09 05:22 55.73535 -41.67024 33198 ft 517 kts 75°
2026-05-09 05:22 55.75565 -41.54774 33205 ft 518 kts 75°
2026-05-09 05:23 55.77588 -41.42486 33220 ft 519 kts 75°
2026-05-09 05:23 55.79600 -41.30173 33213 ft 519 kts 75°
2026-05-09 05:24 55.81587 -41.17930 33220 ft 519 kts 76°
2026-05-09 05:24 55.83573 -41.05601 33221 ft 518 kts 75°
2026-05-09 05:25 55.85515 -40.93459 33254 ft 519 kts 75°
2026-05-09 05:25 55.88457 -40.74897 33262 ft 520 kts 76°
2026-05-09 05:26 55.90402 -40.62508 33242 ft 517 kts 76°
2026-05-09 05:26 55.92325 -40.50176 33258 ft 516 kts 75°
2026-05-09 05:27 55.94237 -40.37821 33270 ft 517 kts 75°
2026-05-09 05:27 55.96137 -40.25449 33287 ft 517 kts 75°
2026-05-09 05:28 55.98024 -40.13067 33292 ft 516 kts 75°
2026-05-09 05:28 55.99900 -40.00681 33296 ft 517 kts 75°
2026-05-09 05:29 56.01684 -39.88466 33292 ft 517 kts 76°
2026-05-09 05:29 56.03440 -39.76007 33302 ft 517 kts 76°
2026-05-09 05:30 56.05180 -39.63565 33309 ft 515 kts 76°
2026-05-09 05:30 56.06908 -39.51177 33321 ft 513 kts 76°
2026-05-09 05:31 56.08632 -39.38750 33341 ft 517 kts 76°
2026-05-09 05:31 56.10068 -39.28330 33336 ft 520 kts 76°
2026-05-09 05:32 56.11779 -39.15817 33332 ft 516 kts 76°
2026-05-09 05:32 56.13470 -39.03338 33340 ft 514 kts 76°
2026-05-09 05:33 56.15115 -38.91097 33347 ft 508 kts 76°
2026-05-09 05:33 56.16762 -38.78741 33345 ft 510 kts 76°
2026-05-09 05:34 56.18399 -38.66351 33363 ft 511 kts 76°
2026-05-09 05:34 56.20027 -38.53941 33365 ft 511 kts 76°
2026-05-09 05:35 56.21641 -38.41520 33366 ft 511 kts 76°
2026-05-09 05:35 56.23245 -38.29078 33384 ft 511 kts 76°
2026-05-09 05:36 56.24835 -38.16628 33410 ft 511 kts 76°
2026-05-09 05:36 56.26411 -38.04179 33401 ft 510 kts 76°
2026-05-09 05:37 56.27946 -37.91954 33405 ft 508 kts 76°
2026-05-09 05:37 56.29491 -37.79531 33392 ft 508 kts 75°
2026-05-09 05:38 56.31021 -37.67124 33407 ft 507 kts 75°
2026-05-09 05:38 56.32526 -37.54816 33409 ft 507 kts 76°
2026-05-09 05:39 56.34031 -37.42404 33414 ft 507 kts 76°
2026-05-09 05:39 56.35524 -37.29960 33417 ft 508 kts 76°
2026-05-09 05:40 56.37008 -37.17494 33424 ft 508 kts 76°
2026-05-09 05:40 56.38479 -37.05016 33431 ft 508 kts 76°
2026-05-09 05:41 56.39911 -36.92753 33446 ft 507 kts 76°
2026-05-09 05:41 56.41350 -36.80313 33441 ft 505 kts 76°
2026-05-09 05:42 56.42770 -36.67916 33446 ft 504 kts 76°
2026-05-09 05:42 56.44178 -36.55514 33442 ft 504 kts 76°
2026-05-09 05:43 56.45575 -36.43094 33459 ft 505 kts 76°
2026-05-09 05:43 56.46961 -36.30652 33467 ft 504 kts 76°
2026-05-09 05:44 56.48330 -36.18231 33462 ft 502 kts 76°
2026-05-09 05:44 56.49682 -36.05854 33468 ft 500 kts 76°
2026-05-09 05:45 56.50995 -35.93714 33470 ft 499 kts 76°
2026-05-09 05:45 56.52314 -35.81403 33469 ft 498 kts 76°
2026-05-09 05:46 56.53619 -35.69094 33473 ft 498 kts 76°
2026-05-09 05:46 56.54903 -35.56865 33481 ft 497 kts 76°
2026-05-09 05:47 56.56193 -35.44458 33475 ft 498 kts 76°
2026-05-09 05:47 56.57462 -35.32117 33475 ft 498 kts 76°
2026-05-09 05:48 56.58712 -35.19839 33493 ft 498 kts 76°
2026-05-09 05:48 56.59959 -35.07462 33498 ft 499 kts 76°
2026-05-09 05:49 56.61175 -34.95263 33501 ft 499 kts 76°
2026-05-09 05:49 56.62400 -34.82848 33505 ft 500 kts 76°
2026-05-09 05:50 56.63612 -34.70423 33510 ft 500 kts 76°
2026-05-09 05:50 56.64813 -34.57984 33510 ft 500 kts 76°
2026-05-09 05:51 56.66002 -34.45536 33523 ft 500 kts 76°
2026-05-09 05:51 56.67179 -34.33069 33519 ft 500 kts 76°
2026-05-09 05:52 56.68342 -34.20610 33523 ft 500 kts 76°
2026-05-09 05:52 56.69492 -34.08141 33529 ft 500 kts 76°
2026-05-09 05:53 56.70605 -33.95945 33530 ft 500 kts 76°
2026-05-09 05:53 56.71731 -33.83464 33532 ft 500 kts 76°
2026-05-09 05:54 56.72845 -33.70976 33536 ft 500 kts 76°
2026-05-09 05:54 56.73946 -33.58476 33533 ft 500 kts 76°
2026-05-09 05:55 56.75034 -33.45977 33550 ft 499 kts 76°
2026-05-09 05:55 56.76108 -33.33486 33542 ft 499 kts 76°
2026-05-09 05:56 56.77168 -33.21001 33548 ft 499 kts 76°
2026-05-09 05:56 56.78217 -33.08507 33547 ft 498 kts 76°
2026-05-09 05:57 56.79237 -32.96213 33556 ft 498 kts 76°
2026-05-09 05:57 56.80261 -32.83697 33561 ft 499 kts 76°
2026-05-09 05:58 56.81272 -32.71179 33563 ft 499 kts 76°
2026-05-09 05:58 56.82272 -32.58641 33567 ft 499 kts 76°
2026-05-09 05:59 56.83260 -32.46094 33562 ft 499 kts 76°
2026-05-09 05:59 56.84236 -32.33528 33569 ft 499 kts 76°
2026-05-09 06:00 56.85199 -32.20967 33576 ft 499 kts 76°
2026-05-09 06:00 56.86142 -32.08472 33578 ft 500 kts 76°
2026-05-09 06:01 56.87059 -31.96153 33570 ft 493 kts 76°
2026-05-09 06:01 56.87961 -31.83826 33568 ft 488 kts 76°
2026-05-09 06:02 56.88858 -31.71511 33583 ft 489 kts 76°
2026-05-09 06:02 56.89744 -31.59157 33586 ft 491 kts 76°
2026-05-09 06:03 56.90618 -31.46757 33586 ft 492 kts 76°
2026-05-09 06:03 56.91481 -31.34328 33586 ft 493 kts 76°
2026-05-09 06:04 56.92332 -31.21878 33591 ft 493 kts 76°
2026-05-09 06:04 56.93172 -31.09416 33588 ft 493 kts 76°
2026-05-09 06:05 56.93984 -30.97169 33590 ft 493 kts 76°
2026-05-09 06:05 56.94798 -30.84724 33586 ft 492 kts 76°
2026-05-09 06:06 56.95598 -30.72276 33594 ft 491 kts 76°
2026-05-09 06:06 56.96384 -30.59862 33587 ft 490 kts 76°
2026-05-09 06:07 56.97155 -30.47494 33601 ft 487 kts 76°
2026-05-09 06:07 56.97910 -30.35174 33580 ft 485 kts 76°
2026-05-09 06:08 56.98650 -30.22909 33582 ft 483 kts 76°
2026-05-09 06:08 56.99377 -30.10671 33594 ft 483 kts 76°
2026-05-09 06:09 57.00071 -29.98758 33602 ft 482 kts 77°
2026-05-09 06:09 57.00608 -29.86459 33601 ft 484 kts 78°
2026-05-09 06:10 57.01040 -29.74125 33608 ft 485 kts 79°
2026-05-09 06:10 57.01472 -29.61771 33609 ft 485 kts 79°
2026-05-09 06:11 57.01915 -29.49402 33626 ft 487 kts 78°
2026-05-09 06:11 57.02355 -29.37000 33614 ft 487 kts 78°
2026-05-09 06:12 57.02783 -29.24585 33603 ft 487 kts 78°
2026-05-09 06:12 57.03197 -29.12177 33605 ft 487 kts 79°
2026-05-09 06:13 57.03596 -28.99847 33606 ft 486 kts 78°
2026-05-09 06:13 57.03980 -28.87598 33641 ft 484 kts 78°
2026-05-09 06:14 57.04355 -28.75263 33613 ft 483 kts 78°
2026-05-09 06:14 57.04718 -28.62951 33599 ft 482 kts 78°
2026-05-09 06:15 57.05068 -28.50657 33607 ft 481 kts 78°
2026-05-09 06:15 57.05404 -28.38454 33604 ft 482 kts 78°
2026-05-09 06:16 57.05731 -28.26156 33610 ft 482 kts 79°
2026-05-09 06:16 57.06046 -28.13828 33613 ft 484 kts 78°
2026-05-09 06:17 57.06349 -28.01482 33612 ft 484 kts 79°
2026-05-09 06:17 57.06636 -27.89308 33609 ft 485 kts 79°
2026-05-09 06:18 57.06915 -27.76917 33609 ft 485 kts 79°
2026-05-09 06:18 57.07181 -27.64533 33625 ft 485 kts 79°
2026-05-09 06:19 57.07434 -27.52173 33608 ft 484 kts 79°
2026-05-09 06:19 57.07675 -27.39851 33608 ft 481 kts 79°
2026-05-09 06:20 57.07903 -27.27566 33606 ft 480 kts 79°
2026-05-09 06:20 57.08120 -27.15317 33608 ft 479 kts 79°
2026-05-09 06:21 57.08325 -27.03077 33613 ft 479 kts 79°
2026-05-09 06:21 57.08514 -26.91096 33635 ft 480 kts 79°
2026-05-09 06:22 57.08697 -26.78801 33618 ft 482 kts 79°
2026-05-09 06:22 57.08867 -26.66471 33612 ft 483 kts 79°
2026-05-09 06:23 57.08999 -26.56113 33610 ft 484 kts 79°
2026-05-09 06:23 57.09146 -26.43730 33609 ft 484 kts 79°
2026-05-09 06:24 57.09281 -26.31433 33622 ft 485 kts 79°
2026-05-09 06:24 57.09403 -26.19043 33609 ft 484 kts 79°
2026-05-09 06:25 57.09512 -26.06703 33603 ft 482 kts 79°
2026-05-09 06:25 57.09608 -25.94642 33605 ft 480 kts 79°
2026-05-09 06:26 57.09695 -25.82394 33608 ft 478 kts 79°
2026-05-09 06:26 57.09770 -25.70173 33610 ft 478 kts 79°
2026-05-09 06:27 57.09834 -25.57938 33614 ft 479 kts 79°
2026-05-09 06:27 57.09886 -25.45674 33610 ft 480 kts 79°
2026-05-09 06:28 57.09925 -25.33393 33612 ft 480 kts 79°
2026-05-09 06:28 57.09951 -25.21100 33609 ft 481 kts 79°
2026-05-09 06:29 57.09965 -25.08798 33614 ft 481 kts 80°
2026-05-09 06:29 57.09968 -24.96665 33606 ft 482 kts 80°
2026-05-09 06:30 57.09958 -24.84348 33609 ft 481 kts 80°
2026-05-09 06:30 57.09935 -24.72060 33601 ft 480 kts 80°
2026-05-09 06:31 57.09901 -24.59821 33602 ft 478 kts 80°
2026-05-09 06:31 57.09856 -24.47616 33602 ft 477 kts 80°
2026-05-09 06:32 57.09800 -24.35515 33625 ft 476 kts 80°
2026-05-09 06:33 57.09695 -24.17239 33602 ft 476 kts 80°
2026-05-09 06:33 57.09609 -24.05062 33591 ft 476 kts 80°
2026-05-09 06:34 57.09459 -23.86969 33596 ft 477 kts 81°
2026-05-09 06:34 57.09344 -23.74774 33591 ft 477 kts 81°
2026-05-09 06:35 57.09216 -23.62555 33607 ft 478 kts 80°
2026-05-09 06:35 57.09076 -23.50324 33611 ft 478 kts 81°
2026-05-09 06:36 57.08924 -23.38122 33594 ft 477 kts 81°
2026-05-09 06:36 57.08759 -23.25953 33589 ft 475 kts 81°
2026-05-09 06:37 57.08585 -23.13825 33589 ft 474 kts 81°
2026-05-09 06:37 57.08400 -23.01733 33633 ft 473 kts 80°
2026-05-09 06:38 57.08209 -22.89821 33597 ft 474 kts 81°
2026-05-09 06:38 57.08001 -22.77720 33585 ft 474 kts 81°
2026-05-09 06:39 57.07780 -22.65609 33588 ft 474 kts 81°
2026-05-09 06:39 57.07548 -22.53486 33588 ft 475 kts 81°
2026-05-09 06:40 57.07304 -22.41347 33585 ft 476 kts 81°
2026-05-09 06:40 57.07048 -22.29188 33588 ft 477 kts 81°
2026-05-09 06:41 57.06779 -22.17009 33592 ft 477 kts 81°
2026-05-09 06:41 57.06498 -22.04843 33590 ft 476 kts 81°
2026-05-09 06:42 57.06210 -21.92913 33573 ft 474 kts 81°
2026-05-09 06:42 57.05907 -21.80832 33577 ft 472 kts 81°
2026-05-09 06:43 57.05595 -21.68797 33589 ft 472 kts 81°
2026-05-09 06:43 57.05273 -21.56756 33581 ft 471 kts 81°
2026-05-09 06:44 57.04939 -21.44726 33574 ft 472 kts 81°
2026-05-09 06:44 57.04593 -21.32689 33574 ft 472 kts 81°
2026-05-09 06:45 57.04236 -21.20714 33575 ft 473 kts 82°
2026-05-09 06:45 57.03865 -21.08641 33626 ft 474 kts 82°
2026-05-09 06:46 57.03489 -20.96737 33576 ft 475 kts 82°
2026-05-09 06:46 57.03092 -20.84615 33570 ft 476 kts 82°
2026-05-09 06:47 57.02683 -20.72492 33568 ft 476 kts 82°
2026-05-09 06:47 57.02263 -20.60378 33565 ft 476 kts 82°
2026-05-09 06:48 57.01832 -20.48267 33565 ft 475 kts 82°
2026-05-09 06:48 57.01391 -20.36154 33566 ft 477 kts 83°
2026-05-09 06:49 57.00936 -20.24020 33564 ft 477 kts 83°
2026-05-09 06:49 57.00470 -20.11887 33563 ft 477 kts 83°
2026-05-09 06:50 56.99792 -19.99820 33549 ft 487 kts 90°
2026-05-09 06:50 56.97973 -19.87792 33565 ft 499 kts 97°
2026-05-09 06:51 56.95767 -19.75712 33589 ft 500 kts 98°
2026-05-09 06:51 56.93562 -19.63621 33556 ft 501 kts 98°
2026-05-09 06:52 56.91379 -19.51529 33557 ft 499 kts 98°
2026-05-09 06:52 56.89222 -19.39564 33543 ft 498 kts 98°
2026-05-09 06:53 56.87048 -19.27570 33535 ft 496 kts 98°
2026-05-09 06:53 56.84868 -19.15630 33539 ft 495 kts 98°
2026-05-09 06:54 56.82680 -19.03720 33577 ft 495 kts 98°
2026-05-09 06:54 56.80513 -18.91998 33539 ft 496 kts 99°
2026-05-09 06:55 56.78295 -18.80084 33538 ft 496 kts 99°
2026-05-09 06:55 56.76063 -18.68176 33533 ft 496 kts 99°
2026-05-09 06:56 56.73826 -18.56311 33527 ft 495 kts 99°
2026-05-09 06:56 56.71581 -18.44479 33521 ft 494 kts 99°
2026-05-09 06:57 56.69329 -18.32684 33520 ft 493 kts 99°
2026-05-09 06:57 56.67070 -18.20915 33520 ft 493 kts 99°
2026-05-09 06:58 56.64801 -18.09165 33517 ft 493 kts 99°
2026-05-09 06:58 56.62556 -17.97614 33518 ft 493 kts 99°
2026-05-09 06:59 56.60260 -17.85872 33519 ft 493 kts 100°
2026-05-09 06:59 56.57956 -17.74165 33511 ft 492 kts 100°
2026-05-09 07:00 56.55645 -17.62490 33554 ft 492 kts 101°
2026-05-09 07:00 56.53324 -17.50827 33519 ft 492 kts 101°
2026-05-09 07:01 56.50993 -17.39190 33502 ft 491 kts 101°
2026-05-09 07:01 56.48653 -17.27573 33513 ft 491 kts 101°
2026-05-09 07:02 56.46302 -17.15968 33513 ft 491 kts 101°
2026-05-09 07:02 56.43942 -17.04384 33491 ft 491 kts 102°
2026-05-09 07:03 56.41611 -16.93020 33491 ft 490 kts 102°
2026-05-09 07:03 56.39231 -16.81463 33505 ft 491 kts 103°
2026-05-09 07:04 56.36833 -16.69906 33499 ft 492 kts 103°
2026-05-09 07:04 56.34424 -16.58357 33488 ft 492 kts 103°
2026-05-09 07:05 56.32003 -16.46810 33482 ft 493 kts 103°
2026-05-09 07:05 56.29570 -16.35275 33494 ft 493 kts 104°
2026-05-09 07:06 56.27124 -16.23741 33484 ft 493 kts 105°
2026-05-09 07:06 56.24681 -16.12288 33492 ft 494 kts 107°
2026-05-09 07:07 56.22208 -16.00762 33483 ft 494 kts 107°
2026-05-09 07:07 56.19763 -15.89429 33470 ft 495 kts 107°
2026-05-09 07:08 56.17267 -15.77922 33473 ft 495 kts 107°
2026-05-09 07:08 56.14761 -15.66435 33471 ft 495 kts 107°
2026-05-09 07:09 56.12244 -15.54959 33498 ft 495 kts 108°
2026-05-09 07:09 56.10142 -15.45425 33470 ft 495 kts 108°
2026-05-09 07:10 56.07605 -15.33969 33463 ft 495 kts 109°
2026-05-09 07:10 56.05054 -15.22512 33465 ft 495 kts 109°
2026-05-09 07:11 56.02495 -15.11079 33459 ft 495 kts 109°
2026-05-09 07:11 56.00541 -14.99573 33454 ft 490 kts 97°
2026-05-09 07:12 55.99919 -14.87570 33477 ft 484 kts 86°
2026-05-09 07:12 56.00004 -14.75534 33455 ft 485 kts 85°
2026-05-09 07:13 56.00076 -14.63479 33448 ft 486 kts 86°
2026-05-09 07:13 56.00096 -14.51406 33448 ft 486 kts 86°
2026-05-09 07:14 56.00090 -14.39321 33444 ft 487 kts 86°
2026-05-09 07:14 56.00075 -14.27237 33463 ft 486 kts 86°
2026-05-09 07:15 56.00051 -14.15150 33441 ft 486 kts 86°
2026-05-09 07:15 55.99887 -14.03063 33435 ft 489 kts 92°
2026-05-09 07:16 55.98618 -13.91313 33431 ft 494 kts 103°
2026-05-09 07:16 55.96564 -13.79614 33433 ft 494 kts 104°
2026-05-09 07:17 55.94485 -13.67938 33462 ft 494 kts 104°
2026-05-09 07:17 55.92421 -13.56224 33438 ft 495 kts 104°
2026-05-09 07:18 55.90364 -13.44494 33433 ft 496 kts 104°
2026-05-09 07:18 55.88294 -13.32746 33424 ft 497 kts 104°
2026-05-09 07:19 55.86211 -13.21007 33422 ft 497 kts 104°
2026-05-09 07:19 55.84115 -13.09279 33419 ft 497 kts 104°
2026-05-09 07:20 55.82039 -12.97738 33424 ft 498 kts 105°
2026-05-09 07:20 55.79930 -12.86085 33420 ft 499 kts 105°
2026-05-09 07:21 55.77793 -12.74355 33418 ft 499 kts 105°
2026-05-09 07:21 55.75644 -12.62630 33410 ft 499 kts 105°
2026-05-09 07:22 55.73484 -12.50920 33407 ft 500 kts 105°
2026-05-09 07:22 55.71311 -12.39212 33417 ft 500 kts 106°
2026-05-09 07:23 55.69124 -12.27501 33404 ft 501 kts 107°
2026-05-09 07:23 55.66924 -12.15794 33406 ft 501 kts 107°
2026-05-09 07:24 55.64714 -12.04107 33403 ft 501 kts 107°
2026-05-09 07:24 55.62528 -11.92618 33400 ft 501 kts 107°
2026-05-09 07:25 55.60309 -11.81024 33401 ft 501 kts 107°
2026-05-09 07:25 55.58049 -11.69289 33402 ft 501 kts 107°
2026-05-09 07:26 55.55808 -11.57722 33396 ft 501 kts 108°
2026-05-09 07:26 55.53542 -11.46093 33398 ft 501 kts 108°
2026-05-09 07:27 55.51264 -11.34477 33393 ft 501 kts 108°
2026-05-09 07:27 55.48975 -11.22871 33395 ft 501 kts 108°
2026-05-09 07:28 55.46675 -11.11277 33394 ft 501 kts 109°
2026-05-09 07:28 55.44383 -10.99796 33389 ft 502 kts 109°
2026-05-09 07:29 55.42073 -10.88288 33387 ft 502 kts 109°
2026-05-09 07:29 55.39734 -10.76709 33384 ft 502 kts 109°
2026-05-09 07:30 55.37384 -10.65137 33382 ft 502 kts 109°
2026-05-09 07:30 55.35023 -10.53579 33400 ft 503 kts 110°
2026-05-09 07:31 55.32648 -10.42019 33363 ft 504 kts 111°
2026-05-09 07:31 55.30258 -10.30460 33376 ft 504 kts 111°
2026-05-09 07:32 55.27853 -10.18889 33372 ft 505 kts 111°
2026-05-09 07:32 55.25436 -10.07314 33369 ft 506 kts 111°
2026-05-09 07:33 55.21785 -9.90195 33363 ft 506 kts 113°
2026-05-09 07:34 55.19236 -9.78692 33367 ft 507 kts 113°
2026-05-09 07:34 55.16673 -9.67188 33357 ft 508 kts 113°
2026-05-09 07:35 55.14109 -9.55679 33329 ft 508 kts 115°
2026-05-09 07:35 55.11534 -9.44160 33351 ft 509 kts 115°
2026-05-09 07:36 55.08939 -9.32630 33345 ft 511 kts 116°
2026-05-09 07:36 55.06326 -9.21079 33351 ft 512 kts 116°
2026-05-09 07:37 55.03695 -9.09511 33350 ft 514 kts 116°
2026-05-09 07:37 55.01095 -8.98136 33340 ft 514 kts 116°
2026-05-09 07:38 54.98458 -8.86662 33338 ft 514 kts 116°
2026-05-09 07:38 54.95794 -8.75135 33339 ft 513 kts 116°
2026-05-09 07:39 54.93127 -8.63653 33319 ft 510 kts 117°
2026-05-09 07:39 54.90462 -8.52248 33317 ft 508 kts 117°
2026-05-09 07:40 54.87797 -8.40902 33317 ft 506 kts 118°
2026-05-09 07:40 54.85133 -8.29625 33320 ft 506 kts 118°
2026-05-09 07:41 54.82455 -8.18345 33327 ft 506 kts 118°
2026-05-09 07:41 54.79764 -8.07068 33309 ft 506 kts 118°
2026-05-09 07:42 54.77109 -7.96000 33309 ft 506 kts 118°
2026-05-09 07:42 54.74398 -7.84755 33287 ft 506 kts 118°
2026-05-09 07:43 54.71684 -7.73551 33297 ft 504 kts 118°
2026-05-09 07:43 54.68968 -7.62400 33292 ft 503 kts 118°
2026-05-09 07:44 54.66251 -7.51300 33306 ft 500 kts 119°
2026-05-09 07:44 54.63534 -7.40259 33288 ft 499 kts 119°
2026-05-09 07:45 54.60811 -7.29248 33299 ft 499 kts 119°
2026-05-09 07:45 54.58079 -7.18259 33298 ft 499 kts 119°
2026-05-09 07:46 54.55337 -7.07285 33295 ft 499 kts 119°
2026-05-09 07:46 54.52628 -6.96491 33264 ft 498 kts 120°
2026-05-09 07:47 54.49877 -6.85577 33270 ft 496 kts 120°
2026-05-09 07:47 54.47125 -6.74720 33279 ft 495 kts 120°
2026-05-09 07:48 54.44388 -6.63975 33272 ft 493 kts 120°
2026-05-09 07:48 54.41628 -6.53194 33280 ft 493 kts 120°
2026-05-09 07:49 54.38860 -6.42434 33272 ft 493 kts 120°
2026-05-09 07:49 54.36085 -6.31696 33262 ft 492 kts 120°
2026-05-09 07:50 54.33302 -6.20975 33240 ft 492 kts 120°
2026-05-09 07:50 54.30516 -6.10294 33258 ft 491 kts 120°
2026-05-09 07:51 54.27756 -5.99766 33259 ft 490 kts 120°
2026-05-09 07:51 54.24970 -5.89186 33237 ft 490 kts 120°
2026-05-09 07:52 54.22164 -5.78579 33243 ft 489 kts 120°
2026-05-09 07:52 54.19354 -5.68007 33233 ft 489 kts 120°
2026-05-09 07:53 54.16537 -5.57458 33226 ft 488 kts 120°
2026-05-09 07:53 54.13709 -5.46917 33241 ft 488 kts 120°
2026-05-09 07:54 54.10874 -5.36404 33232 ft 487 kts 120°
2026-05-09 07:54 54.08041 -5.25932 33212 ft 486 kts 120°
2026-05-09 07:55 54.05207 -5.15508 33222 ft 484 kts 120°
2026-05-09 07:55 54.02371 -5.05128 33213 ft 483 kts 121°
2026-05-09 07:56 53.99586 -4.94974 33218 ft 483 kts 121°
2026-05-09 07:56 53.97077 -4.86548 33216 ft 478 kts 127°
2026-05-09 07:57 53.93248 -4.77448 33206 ft 472 kts 133°
2026-05-09 07:57 53.89287 -4.68551 33190 ft 473 kts 132°
2026-05-09 07:58 53.85367 -4.59615 33191 ft 472 kts 132°
2026-05-09 07:58 53.81464 -4.50719 33191 ft 470 kts 132°
2026-05-09 07:59 53.77577 -4.41857 33189 ft 468 kts 132°
2026-05-09 07:59 53.73699 -4.33019 33190 ft 468 kts 132°
2026-05-09 08:00 53.69845 -4.24268 33192 ft 467 kts 132°
2026-05-09 08:00 53.65960 -4.15476 33168 ft 467 kts 132°
2026-05-09 08:01 53.62077 -4.06732 33184 ft 465 kts 132°
2026-05-09 08:01 53.58247 -3.98208 33180 ft 464 kts 132°
2026-05-09 08:02 53.54351 -3.89572 33182 ft 463 kts 132°
2026-05-09 08:02 53.50460 -3.80965 33181 ft 462 kts 132°
2026-05-09 08:03 53.46565 -3.72373 33183 ft 462 kts 132°
2026-05-09 08:03 53.42666 -3.63797 33181 ft 463 kts 133°
2026-05-09 08:04 53.38582 -3.55512 33173 ft 460 kts 136°
2026-05-09 08:04 53.34338 -3.47486 33178 ft 461 kts 136°
2026-05-09 08:05 53.30099 -3.39428 33179 ft 462 kts 136°
2026-05-09 08:05 53.25844 -3.31367 33180 ft 463 kts 136°
2026-05-09 08:06 53.21584 -3.23317 33188 ft 463 kts 136°
2026-05-09 08:06 53.17316 -3.15284 33182 ft 462 kts 136°
2026-05-09 08:07 53.13063 -3.07306 33176 ft 460 kts 136°
2026-05-09 08:07 53.08877 -2.99475 33183 ft 459 kts 136°
2026-05-09 08:08 53.04630 -2.91551 33176 ft 459 kts 136°
2026-05-09 08:08 53.00400 -2.83688 33176 ft 459 kts 136°
2026-05-09 08:09 52.96137 -2.75788 33159 ft 459 kts 136°
2026-05-09 08:09 52.91851 -2.67860 33154 ft 458 kts 136°
2026-05-09 08:10 52.87626 -2.60069 33154 ft 457 kts 136°
2026-05-09 08:10 52.83380 -2.52264 33156 ft 456 kts 136°
2026-05-09 08:11 52.79127 -2.44480 33170 ft 456 kts 136°
2026-05-09 08:11 52.74859 -2.36705 33169 ft 457 kts 136°
2026-05-09 08:12 52.68446 -2.25060 33145 ft 458 kts 136°
2026-05-09 08:12 52.64163 -2.17308 33164 ft 457 kts 136°
2026-05-09 08:13 52.59882 -2.09584 33166 ft 456 kts 136°
2026-05-09 08:13 52.55602 -2.01888 33147 ft 456 kts 136°
2026-05-09 08:14 52.51387 -1.94332 33150 ft 456 kts 136°
2026-05-09 08:14 52.47103 -1.86675 33162 ft 455 kts 136°
2026-05-09 08:15 52.42817 -1.79036 33155 ft 455 kts 136°
2026-05-09 08:15 52.38530 -1.71416 33157 ft 455 kts 136°
2026-05-09 08:16 52.34233 -1.63835 33159 ft 454 kts 137°
2026-05-09 08:16 52.29868 -1.56374 33157 ft 454 kts 137°
2026-05-09 08:17 52.25492 -1.48952 33162 ft 453 kts 137°
2026-05-09 08:17 52.21131 -1.41546 33156 ft 452 kts 137°
2026-05-09 08:18 52.16767 -1.34145 33161 ft 453 kts 137°
2026-05-09 08:18 52.12400 -1.26759 33159 ft 453 kts 137°
2026-05-09 08:19 52.08025 -1.19381 33157 ft 454 kts 137°
2026-05-09 08:19 52.03630 -1.11993 33154 ft 454 kts 137°
2026-05-09 08:20 51.99237 -1.04778 33147 ft 452 kts 138°
2026-05-09 08:20 51.94883 -0.97555 33125 ft 452 kts 137°
2026-05-09 08:21 51.90543 -0.90273 33140 ft 453 kts 137°
2026-05-09 08:21 51.86151 -0.82944 33153 ft 454 kts 137°
2026-05-09 08:22 51.81733 -0.75605 33151 ft 456 kts 137°
2026-05-09 08:22 51.77300 -0.68276 33152 ft 456 kts 137°
2026-05-09 08:23 51.72864 -0.60984 33159 ft 455 kts 137°
2026-05-09 08:23 51.68437 -0.53728 33132 ft 453 kts 137°
2026-05-09 08:24 51.64023 -0.46507 33126 ft 452 kts 137°
2026-05-09 08:24 51.59616 -0.39318 33133 ft 451 kts 137°
2026-05-09 08:25 51.55214 -0.32159 33139 ft 450 kts 137°
2026-05-09 08:25 51.50815 -0.25026 33127 ft 449 kts 137°
2026-05-09 08:26 51.46423 -0.17924 33148 ft 448 kts 137°
2026-05-09 08:26 51.42034 -0.10845 33144 ft 447 kts 137°
2026-05-09 08:27 51.37646 -0.03789 33137 ft 447 kts 137°
2026-05-09 08:27 51.33910 0.03287 33154 ft 452 kts 127°
2026-05-09 08:28 51.30821 0.12101 33214 ft 459 kts 116°
2026-05-09 08:28 51.28825 0.19975 33251 ft 461 kts 115°
2026-05-09 08:29 51.26232 0.30381 33308 ft 461 kts 115°
2026-05-09 08:29 51.23824 0.39881 33323 ft 461 kts 116°
2026-05-09 08:30 51.21403 0.49303 33299 ft 461 kts 116°
2026-05-09 08:30 51.18960 0.58757 33301 ft 461 kts 116°
2026-05-09 08:31 51.16510 0.68204 33273 ft 461 kts 116°
2026-05-09 08:31 51.14052 0.77644 33234 ft 461 kts 116°
2026-05-09 08:32 51.11586 0.87076 33196 ft 461 kts 116°
2026-05-09 08:33 51.07914 1.01061 33132 ft 462 kts 116°
2026-05-09 08:33 51.05420 1.10506 33135 ft 464 kts 116°
2026-05-09 08:34 51.02913 1.19981 33128 ft 466 kts 116°
2026-05-09 08:34 51.00397 1.29467 33132 ft 466 kts 116°
2026-05-09 08:35 50.97888 1.38889 33125 ft 467 kts 116°
2026-05-09 08:35 50.95350 1.48372 33106 ft 467 kts 116°
2026-05-09 08:36 50.92778 1.57823 33114 ft 467 kts 116°
2026-05-09 08:36 50.90183 1.67278 33110 ft 467 kts 118°
2026-05-09 08:37 50.86768 1.75945 33120 ft 463 kts 130°
2026-05-09 08:37 50.82377 1.83326 33114 ft 459 kts 138°
2026-05-09 08:38 50.77720 1.90234 33093 ft 459 kts 139°
2026-05-09 08:38 50.73061 1.97154 33100 ft 461 kts 138°
2026-05-09 08:39 50.68484 2.03989 33108 ft 462 kts 138°
2026-05-09 08:39 50.63817 2.10963 33100 ft 463 kts 138°
2026-05-09 08:40 50.59144 2.17931 33107 ft 462 kts 138°
2026-05-09 08:40 50.54475 2.24872 33097 ft 461 kts 138°
2026-05-09 08:41 50.49814 2.31777 33087 ft 460 kts 138°
2026-05-09 08:41 50.45152 2.38664 33098 ft 460 kts 138°
2026-05-09 08:42 50.40477 2.45551 33101 ft 462 kts 138°
2026-05-09 08:42 50.35785 2.52443 33098 ft 463 kts 138°
2026-05-09 08:43 50.31875 2.58172 33099 ft 463 kts 138°
2026-05-09 08:43 50.27165 2.65057 33090 ft 464 kts 138°
2026-05-09 08:44 50.22451 2.71926 33089 ft 463 kts 138°
2026-05-09 08:44 50.17732 2.78782 33076 ft 464 kts 138°
2026-05-09 08:45 50.13006 2.85631 33103 ft 464 kts 138°
2026-05-09 08:45 50.08269 2.92476 33096 ft 464 kts 138°
2026-05-09 08:46 50.03527 2.99309 33102 ft 465 kts 138°
2026-05-09 08:46 49.98852 3.06026 33093 ft 465 kts 138°
2026-05-09 08:47 49.94104 3.12831 33093 ft 464 kts 138°
2026-05-09 08:47 49.89355 3.19619 33071 ft 464 kts 138°
2026-05-09 08:48 49.84602 3.26395 33091 ft 465 kts 138°
2026-05-09 08:48 49.79948 3.33356 33086 ft 467 kts 132°
2026-05-09 08:49 49.75888 3.41223 33094 ft 468 kts 129°
2026-05-09 08:49 49.71860 3.49143 33090 ft 469 kts 129°
2026-05-09 08:50 49.67803 3.57038 33088 ft 469 kts 129°
2026-05-09 08:50 49.63740 3.64891 33075 ft 468 kts 129°
2026-05-09 08:51 49.59665 3.72733 33090 ft 468 kts 129°
2026-05-09 08:51 49.55612 3.80512 33091 ft 469 kts 129°
2026-05-09 08:52 49.51519 3.88346 33085 ft 470 kts 130°
2026-05-09 08:52 49.47417 3.96175 33089 ft 470 kts 130°
2026-05-09 08:53 49.43386 4.03844 33093 ft 470 kts 130°
2026-05-09 08:53 49.39281 4.11635 33086 ft 469 kts 130°
2026-05-09 08:54 49.35169 4.19413 33083 ft 468 kts 130°
2026-05-09 08:54 49.31062 4.27159 33084 ft 468 kts 130°
2026-05-09 08:55 49.26958 4.34879 33088 ft 467 kts 130°
2026-05-09 08:55 49.22847 4.42588 33079 ft 467 kts 130°
2026-05-09 08:56 49.18728 4.50290 33071 ft 468 kts 130°
2026-05-09 08:56 49.14598 4.57990 33080 ft 469 kts 130°
2026-05-09 08:57 49.10456 4.65690 33076 ft 470 kts 130°
2026-05-09 08:57 49.06298 4.73399 33078 ft 470 kts 130°
2026-05-09 08:58 49.02133 4.81097 33074 ft 471 kts 130°
2026-05-09 08:58 48.97965 4.88779 33070 ft 471 kts 130°
2026-05-09 08:59 48.93791 4.96453 33063 ft 471 kts 130°
2026-05-09 08:59 48.89680 5.03989 33062 ft 471 kts 130°
2026-05-09 09:00 48.85856 5.12085 33063 ft 472 kts 124°
2026-05-09 09:00 48.82222 5.20401 33060 ft 473 kts 124°
2026-05-09 09:01 48.78574 5.28699 33079 ft 473 kts 124°
2026-05-09 09:01 48.74891 5.37001 33081 ft 475 kts 124°
2026-05-09 09:02 48.71185 5.45311 33072 ft 477 kts 125°
2026-05-09 09:02 48.67460 5.53633 33093 ft 478 kts 124°
2026-05-09 09:03 48.63728 5.61948 33068 ft 478 kts 125°
2026-05-09 09:03 48.59987 5.70258 33102 ft 479 kts 124°
2026-05-09 09:04 48.56228 5.78584 33106 ft 481 kts 124°
2026-05-09 09:04 48.52446 5.86933 33112 ft 484 kts 124°
2026-05-09 09:05 48.48662 5.95261 33085 ft 485 kts 125°
2026-05-09 09:05 48.44908 6.03499 33074 ft 484 kts 125°
2026-05-09 09:06 48.41096 6.11837 33077 ft 484 kts 124°
2026-05-09 09:06 48.37272 6.20178 33077 ft 484 kts 125°
2026-05-09 09:07 48.33438 6.28513 33081 ft 485 kts 125°
2026-05-09 09:07 48.29586 6.36862 33083 ft 486 kts 125°
2026-05-09 09:08 48.25729 6.45198 33082 ft 487 kts 124°
2026-05-09 09:08 48.21852 6.53552 33084 ft 488 kts 125°
2026-05-09 09:09 48.17963 6.61901 33089 ft 489 kts 125°
2026-05-09 09:09 48.14062 6.70253 33092 ft 489 kts 125°
2026-05-09 09:10 48.10155 6.78592 33084 ft 490 kts 125°
2026-05-09 09:10 48.06239 6.86926 33078 ft 490 kts 125°
2026-05-09 09:11 48.02307 6.95267 33096 ft 491 kts 125°
2026-05-09 09:11 47.98435 7.03457 33091 ft 492 kts 126°
2026-05-09 09:12 47.94514 7.11726 33099 ft 491 kts 126°
2026-05-09 09:12 47.90558 7.20042 33099 ft 491 kts 126°
2026-05-09 09:13 47.86590 7.28360 33094 ft 493 kts 126°
2026-05-09 09:13 47.82613 7.36671 33120 ft 495 kts 126°
2026-05-09 09:14 47.78604 7.45026 33099 ft 496 kts 126°
2026-05-09 09:14 47.74586 7.53376 33101 ft 496 kts 126°
2026-05-09 09:15 47.70536 7.61654 33098 ft 496 kts 127°
2026-05-09 09:15 47.66434 7.69876 33102 ft 495 kts 127°
2026-05-09 09:16 47.62328 7.78090 33097 ft 495 kts 127°
2026-05-09 09:16 47.56181 7.90383 33102 ft 495 kts 127°
2026-05-09 09:17 47.52080 7.98561 33086 ft 495 kts 127°
2026-05-09 09:17 47.48043 8.06587 33103 ft 493 kts 127°
2026-05-09 09:18 47.43952 8.14695 33101 ft 492 kts 128°
2026-05-09 09:18 47.39864 8.22771 33107 ft 491 kts 128°
2026-05-09 09:19 47.35772 8.30833 33103 ft 490 kts 128°
2026-05-09 09:19 47.31673 8.38887 33106 ft 492 kts 128°
2026-05-09 09:20 47.27554 8.46961 33129 ft 494 kts 128°
2026-05-09 09:20 47.23446 8.55071 33130 ft 495 kts 127°
2026-05-09 09:21 47.19403 8.63270 33120 ft 495 kts 127°
2026-05-09 09:21 47.15369 8.71454 33115 ft 495 kts 127°
2026-05-09 09:22 47.11316 8.79624 33112 ft 495 kts 128°
2026-05-09 09:22 47.07278 8.87720 33117 ft 495 kts 128°
2026-05-09 09:23 47.03204 8.95861 33114 ft 495 kts 128°
2026-05-09 09:23 46.99175 9.03888 33119 ft 497 kts 129°
2026-05-09 09:24 46.95067 9.12048 33125 ft 499 kts 128°
2026-05-09 09:24 46.90937 9.20228 33120 ft 501 kts 129°
2026-05-09 09:25 46.86791 9.28422 33111 ft 502 kts 129°
2026-05-09 09:25 46.82632 9.36610 33120 ft 502 kts 129°
2026-05-09 09:26 46.78475 9.44780 33112 ft 501 kts 129°
2026-05-09 09:26 46.74294 9.52965 33124 ft 505 kts 130°
2026-05-09 09:27 46.70085 9.61179 33142 ft 508 kts 130°
2026-05-09 09:27 46.65842 9.69438 33155 ft 511 kts 129°
2026-05-09 09:28 46.61571 9.77730 33173 ft 512 kts 130°
2026-05-09 09:28 46.57294 9.86009 33160 ft 511 kts 130°
2026-05-09 09:29 46.53029 9.94241 33125 ft 510 kts 130°
2026-05-09 09:29 46.49547 10.00943 33151 ft 509 kts 130°
2026-05-09 09:30 46.44924 10.08684 33159 ft 506 kts 139°
2026-05-09 09:30 46.39887 10.15871 33176 ft 510 kts 140°
2026-05-09 09:31 46.34810 10.23092 33181 ft 513 kts 139°
2026-05-09 09:32 46.27187 10.34024 33180 ft 515 kts 139°
2026-05-09 09:32 46.22111 10.41313 33172 ft 514 kts 139°
2026-05-09 09:33 46.17044 10.48566 33180 ft 512 kts 139°
2026-05-09 09:33 46.11986 10.55780 33173 ft 510 kts 139°
2026-05-09 09:34 46.06923 10.62978 33132 ft 510 kts 140°
2026-05-09 09:34 46.01874 10.70133 33174 ft 514 kts 140°
2026-05-09 09:36 45.81379 10.98993 33143 ft 521 kts 141°
2026-05-09 09:37 45.76216 11.06206 33139 ft 531 kts 141°
2026-05-09 09:37 45.70981 11.13530 33089 ft 521 kts 140°
2026-05-09 09:38 45.65807 11.20737 33117 ft 520 kts 141°
2026-05-09 09:38 45.60629 11.27913 33065 ft 524 kts 141°
2026-05-09 09:39 45.55363 11.35191 33094 ft 530 kts 141°
2026-05-09 09:39 45.50031 11.42544 33096 ft 536 kts 141°
2026-05-09 09:40 45.44662 11.49936 33094 ft 538 kts 141°
2026-05-09 09:40 45.39308 11.57293 33093 ft 531 kts 141°
2026-05-09 09:41 45.33980 11.64585 33107 ft 534 kts 142°
2026-05-09 09:41 45.28585 11.71937 33110 ft 540 kts 142°
2026-05-09 09:42 45.23152 11.79331 33116 ft 542 kts 142°
2026-05-09 09:42 45.17710 11.86719 33109 ft 541 kts 142°
2026-05-09 09:43 45.12274 11.94079 33103 ft 539 kts 142°
2026-05-09 09:43 45.06938 12.01281 33110 ft 539 kts 142°
2026-05-09 09:44 45.01511 12.08585 33120 ft 539 kts 142°
2026-05-09 09:44 44.96080 12.15872 33106 ft 539 kts 142°
2026-05-09 09:45 44.90636 12.23158 33098 ft 540 kts 142°
2026-05-09 09:45 44.85198 12.30417 33101 ft 540 kts 142°
2026-05-09 09:46 44.79717 12.37714 33108 ft 541 kts 142°
2026-05-09 09:46 44.74241 12.44985 33111 ft 542 kts 142°
2026-05-09 09:47 44.68754 12.52249 33079 ft 542 kts 142°
2026-05-09 09:47 44.63267 12.59496 33106 ft 542 kts 142°
2026-05-09 09:48 44.57770 12.66738 33119 ft 542 kts 142°
2026-05-09 09:48 44.52266 12.73985 33113 ft 543 kts 142°
2026-05-09 09:49 44.46805 12.81308 33078 ft 544 kts 141°
2026-05-09 09:49 44.41398 12.88596 33102 ft 543 kts 141°
2026-05-09 09:50 44.35943 12.95912 33107 ft 543 kts 141°
2026-05-09 09:50 44.30573 13.03076 33113 ft 543 kts 141°
2026-05-09 09:51 44.25100 13.10353 33112 ft 543 kts 141°
2026-05-09 09:51 44.19622 13.17616 33097 ft 544 kts 141°
2026-05-09 09:52 44.14135 13.24873 33106 ft 544 kts 141°
2026-05-09 09:52 44.08640 13.32123 33108 ft 545 kts 141°
2026-05-09 09:53 44.03131 13.39372 33109 ft 545 kts 141°
2026-05-09 09:53 43.97621 13.46602 33109 ft 545 kts 142°
2026-05-09 09:54 43.92102 13.53825 33102 ft 546 kts 141°
2026-05-09 09:54 43.86575 13.61039 33111 ft 546 kts 141°
2026-05-09 09:55 43.81040 13.68243 33107 ft 546 kts 141°
2026-05-09 09:55 43.75503 13.75431 33096 ft 546 kts 142°
2026-05-09 09:56 43.69963 13.82604 33109 ft 545 kts 142°
2026-05-09 09:56 43.64422 13.89759 33103 ft 546 kts 141°
2026-05-09 09:57 43.58905 13.96864 33107 ft 546 kts 141°
2026-05-09 09:57 43.53443 14.03881 33090 ft 546 kts 142°
2026-05-09 09:58 43.47880 14.11009 33107 ft 546 kts 142°
2026-05-09 09:58 43.42314 14.18121 33100 ft 546 kts 142°
2026-05-09 09:59 43.36739 14.25225 33118 ft 547 kts 142°
2026-05-09 09:59 43.31156 14.32321 33085 ft 547 kts 142°
2026-05-09 10:00 43.25567 14.39408 33110 ft 547 kts 142°
2026-05-09 10:00 43.19968 14.46487 33113 ft 548 kts 142°
2026-05-09 10:01 43.14364 14.53555 33110 ft 548 kts 142°
2026-05-09 10:01 43.08753 14.60613 33078 ft 548 kts 142°
2026-05-09 10:02 43.03144 14.67651 33092 ft 547 kts 142°
2026-05-09 10:02 42.97556 14.74644 33100 ft 546 kts 142°
2026-05-09 10:03 42.91953 14.81637 33105 ft 546 kts 142°
2026-05-09 10:03 42.86348 14.88614 33099 ft 546 kts 142°
2026-05-09 10:04 42.80742 14.95576 33103 ft 545 kts 142°
2026-05-09 10:04 42.75226 15.02407 33106 ft 546 kts 142°
2026-05-09 10:05 42.69640 15.09307 33105 ft 546 kts 142°
2026-05-09 10:05 42.64011 15.16244 33104 ft 547 kts 142°
2026-05-09 10:06 42.58369 15.23180 33093 ft 547 kts 142°
2026-05-09 10:06 42.52730 15.30094 33105 ft 547 kts 142°
2026-05-09 10:07 42.47082 15.37000 33101 ft 548 kts 142°
2026-05-09 10:07 42.41414 15.43913 33103 ft 548 kts 142°
2026-05-09 10:08 42.35745 15.50812 33082 ft 548 kts 142°
2026-05-09 10:08 42.30072 15.57699 33099 ft 548 kts 142°
2026-05-09 10:09 42.24401 15.64565 33111 ft 547 kts 142°
2026-05-09 10:09 42.18724 15.71419 33109 ft 548 kts 142°
2026-05-09 10:10 42.13032 15.78273 33091 ft 549 kts 142°
2026-05-09 10:10 42.07341 15.85112 33122 ft 548 kts 143°
2026-05-09 10:11 42.01648 15.91935 33127 ft 548 kts 143°
2026-05-09 10:11 41.95965 15.98729 33097 ft 548 kts 143°
2026-05-09 10:12 41.90353 16.05420 33104 ft 549 kts 142°
2026-05-09 10:12 41.84638 16.12221 33086 ft 549 kts 142°
2026-05-09 10:13 41.78920 16.19006 33091 ft 549 kts 143°
2026-05-09 10:13 41.73196 16.25780 33098 ft 549 kts 143°
2026-05-09 10:14 41.67472 16.32539 33092 ft 549 kts 143°
2026-05-09 10:14 41.61739 16.39290 33094 ft 550 kts 143°
2026-05-09 10:15 41.55988 16.46047 33098 ft 551 kts 143°
2026-05-09 10:15 41.50217 16.52811 33096 ft 552 kts 143°
2026-05-09 10:16 41.44441 16.59565 33097 ft 553 kts 143°
2026-05-09 10:16 41.38652 16.66317 33065 ft 553 kts 143°
2026-05-09 10:17 41.32912 16.72997 33099 ft 552 kts 143°
2026-05-09 10:17 41.27127 16.79710 33101 ft 552 kts 143°
2026-05-09 10:18 41.21339 16.86410 33104 ft 552 kts 143°
2026-05-09 10:18 41.16486 16.92016 33095 ft 552 kts 143°
2026-05-09 10:19 41.10698 16.98688 33102 ft 551 kts 143°
2026-05-09 10:19 41.05019 17.05218 33111 ft 550 kts 143°
2026-05-09 10:20 40.99241 17.11846 33110 ft 551 kts 143°
2026-05-09 10:20 40.93435 17.18488 33095 ft 552 kts 143°
2026-05-09 10:21 40.87622 17.25125 33081 ft 552 kts 143°
2026-05-09 10:21 40.81817 17.31737 33090 ft 551 kts 143°
2026-05-09 10:22 40.76012 17.38332 33081 ft 550 kts 143°
2026-05-09 10:22 40.70252 17.44861 33084 ft 550 kts 143°
2026-05-09 10:23 40.64448 17.51422 33085 ft 550 kts 143°
2026-05-09 10:23 40.58644 17.57969 33068 ft 549 kts 143°
2026-05-09 10:24 40.52837 17.64504 33083 ft 549 kts 144°
2026-05-09 10:24 40.47025 17.71029 33083 ft 550 kts 144°
2026-05-09 10:25 40.41206 17.77545 33078 ft 550 kts 144°
2026-05-09 10:25 40.35374 17.84061 33086 ft 551 kts 144°
2026-05-09 10:26 40.29531 17.90575 33102 ft 552 kts 144°
2026-05-09 10:26 40.23677 17.97086 33102 ft 552 kts 144°
2026-05-09 10:27 40.17918 18.03476 33102 ft 552 kts 144°
2026-05-09 10:27 40.12056 18.09965 33065 ft 552 kts 144°
2026-05-09 10:28 40.06208 18.16425 33089 ft 550 kts 144°
2026-05-09 10:28 40.00365 18.22863 33107 ft 549 kts 144°
2026-05-09 10:29 39.94579 18.29224 33091 ft 548 kts 144°
2026-05-09 10:29 39.88753 18.35612 33101 ft 547 kts 144°
2026-05-09 10:30 39.82892 18.42025 33089 ft 547 kts 144°
2026-05-09 10:30 39.77067 18.48385 33092 ft 546 kts 144°
2026-05-09 10:31 39.71282 18.54686 33100 ft 547 kts 144°
2026-05-09 10:31 39.65449 18.61024 33100 ft 547 kts 144°
2026-05-09 10:32 39.59603 18.67363 33084 ft 548 kts 144°
2026-05-09 10:32 39.53754 18.73692 33090 ft 548 kts 144°
2026-05-09 10:33 39.47905 18.80006 33091 ft 548 kts 145°
2026-05-09 10:33 39.42038 18.86324 33094 ft 549 kts 145°
2026-05-09 10:34 39.36162 18.92640 33091 ft 549 kts 145°
2026-05-09 10:34 39.27457 19.01998 33085 ft 549 kts 144°
2026-05-09 10:35 39.21694 19.08467 33082 ft 549 kts 143°
2026-05-09 10:35 39.15978 19.14986 33075 ft 549 kts 143°
2026-05-09 10:36 39.10242 19.21483 33078 ft 549 kts 143°
2026-05-09 10:36 39.04489 19.27948 33077 ft 549 kts 143°
2026-05-09 10:37 38.98731 19.34389 33080 ft 550 kts 143°
2026-05-09 10:37 38.92955 19.40838 33076 ft 550 kts 143°
2026-05-09 10:38 38.87176 19.47279 33080 ft 551 kts 143°
2026-05-09 10:38 38.81383 19.53723 33071 ft 552 kts 143°
2026-05-09 10:39 38.75582 19.60162 33067 ft 551 kts 143°
2026-05-09 10:39 38.69781 19.66586 33069 ft 551 kts 143°
2026-05-09 10:40 38.63979 19.72997 33067 ft 551 kts 143°
2026-05-09 10:40 38.58177 19.79393 33063 ft 551 kts 143°
2026-05-09 10:41 38.52405 19.85741 33037 ft 551 kts 143°
2026-05-09 10:41 38.46597 19.92117 33055 ft 551 kts 143°
2026-05-09 10:42 38.40790 19.98476 33060 ft 550 kts 144°
2026-05-09 10:42 38.35075 20.04721 33060 ft 550 kts 144°
2026-05-09 10:43 38.29260 20.11062 33057 ft 550 kts 144°
2026-05-09 10:43 38.23446 20.17387 33040 ft 550 kts 144°
2026-05-09 10:44 38.17630 20.23701 33048 ft 550 kts 144°
2026-05-09 10:44 38.11811 20.30005 33052 ft 550 kts 144°
2026-05-09 10:46 37.97252 20.45716 33020 ft 550 kts 144°
2026-05-09 10:46 37.91427 20.51979 33049 ft 549 kts 144°
2026-05-09 10:47 37.85602 20.58228 33063 ft 549 kts 144°
2026-05-09 10:47 37.79770 20.64470 33060 ft 549 kts 144°
2026-05-09 10:48 37.73975 20.70659 33062 ft 550 kts 144°
2026-05-09 10:48 37.68130 20.76891 33045 ft 549 kts 144°
2026-05-09 10:49 37.62295 20.83098 33046 ft 548 kts 144°
2026-05-09 10:49 37.56464 20.89287 33050 ft 548 kts 144°
2026-05-09 10:50 37.50634 20.95462 33050 ft 547 kts 144°
2026-05-09 10:50 37.44899 21.01522 33050 ft 547 kts 144°
2026-05-09 10:51 37.39069 21.07672 33047 ft 546 kts 144°
2026-05-09 10:51 37.33247 21.13800 33046 ft 545 kts 144°
2026-05-09 10:52 37.27424 21.19916 33048 ft 545 kts 144°
2026-05-09 10:52 37.21601 21.26019 33050 ft 546 kts 144°
2026-05-09 10:53 37.15767 21.32121 33051 ft 546 kts 144°
2026-05-09 10:53 37.09937 21.38205 33046 ft 545 kts 144°
2026-05-09 10:54 37.04110 21.44275 33046 ft 545 kts 144°
2026-05-09 10:54 36.98300 21.50315 33046 ft 544 kts 144°
2026-05-09 10:55 36.92511 21.56320 33046 ft 544 kts 144°
2026-05-09 10:55 36.86685 21.62351 33050 ft 544 kts 144°
2026-05-09 10:56 36.80865 21.68364 33042 ft 542 kts 144°
2026-05-09 10:56 36.75051 21.74358 33045 ft 542 kts 144°
2026-05-09 10:57 36.69242 21.80336 33043 ft 541 kts 144°
2026-05-09 10:57 36.63433 21.86300 33046 ft 541 kts 144°
2026-05-09 10:58 36.57626 21.92249 33035 ft 541 kts 144°
2026-05-09 10:58 36.51820 21.98188 33049 ft 540 kts 144°
2026-05-09 10:59 36.46123 22.04003 33048 ft 539 kts 144°
2026-05-09 10:59 36.40328 22.09906 33048 ft 539 kts 144°
2026-05-09 11:00 36.34529 22.15801 33050 ft 539 kts 144°
2026-05-09 11:00 36.28732 22.21682 33050 ft 539 kts 144°
2026-05-09 11:01 36.22926 22.27561 33055 ft 539 kts 144°
2026-05-09 11:01 36.17112 22.33437 33056 ft 540 kts 144°
2026-05-09 11:02 36.11292 22.39307 33053 ft 540 kts 144°
2026-05-09 11:02 36.05468 22.45169 33053 ft 540 kts 144°
2026-05-09 11:03 35.99652 22.51012 33034 ft 540 kts 144°
2026-05-09 11:03 35.93832 22.56848 33042 ft 539 kts 144°
2026-05-09 11:04 35.88014 22.62671 33052 ft 538 kts 144°
2026-05-09 11:04 35.82199 22.68478 33054 ft 537 kts 144°
2026-05-09 11:05 35.77374 22.73289 33064 ft 537 kts 144°
2026-05-09 11:05 35.71561 22.79074 33049 ft 537 kts 144°
2026-05-09 11:06 35.65747 22.84848 33063 ft 537 kts 144°
2026-05-09 11:06 35.59934 22.90611 33063 ft 537 kts 144°
2026-05-09 11:07 35.54121 22.96362 33059 ft 537 kts 144°
2026-05-09 11:07 35.48409 23.02004 33066 ft 537 kts 144°
2026-05-09 11:08 35.42588 23.07741 33043 ft 537 kts 144°
2026-05-09 11:08 35.36777 23.13459 33068 ft 535 kts 144°
2026-05-09 11:09 35.30969 23.19162 33070 ft 534 kts 144°
2026-05-09 11:09 35.25170 23.24846 33073 ft 534 kts 144°
2026-05-09 11:10 35.19374 23.30516 33070 ft 533 kts 144°
2026-05-09 11:10 35.13578 23.36175 33053 ft 533 kts 144°
2026-05-09 11:11 35.07827 23.41779 33074 ft 532 kts 144°
2026-05-09 11:11 35.02039 23.47410 33082 ft 532 kts 144°
2026-05-09 11:12 34.96263 23.53018 33085 ft 532 kts 144°
2026-05-09 11:12 34.90470 23.58632 33085 ft 532 kts 144°
2026-05-09 11:13 34.84670 23.64243 33084 ft 532 kts 144°
2026-05-09 11:13 34.78876 23.69838 33083 ft 532 kts 144°
2026-05-09 11:14 34.73079 23.75425 33088 ft 532 kts 144°
2026-05-09 11:14 34.67277 23.81006 33087 ft 532 kts 144°
2026-05-09 11:15 34.61473 23.86580 33087 ft 532 kts 144°
2026-05-09 11:15 34.55663 23.92148 33087 ft 532 kts 144°
2026-05-09 11:16 34.49855 23.97706 33079 ft 531 kts 144°
2026-05-09 11:16 34.44159 24.03146 33082 ft 530 kts 144°
2026-05-09 11:17 34.38368 24.08667 33086 ft 529 kts 144°
2026-05-09 11:17 34.32580 24.14175 33089 ft 529 kts 144°
2026-05-09 11:18 34.26832 24.19635 33088 ft 529 kts 144°
2026-05-09 11:18 34.21052 24.25116 33092 ft 528 kts 144°
2026-05-09 11:19 34.15279 24.30580 33098 ft 527 kts 144°
2026-05-09 11:19 34.09514 24.36028 33080 ft 526 kts 144°
2026-05-09 11:20 34.03750 24.41467 33094 ft 526 kts 144°
2026-05-09 11:20 33.98068 24.46989 33094 ft 527 kts 141°
2026-05-09 11:21 33.92603 24.52868 33086 ft 526 kts 140°
2026-05-09 11:21 33.87180 24.58760 33090 ft 525 kts 140°
2026-05-09 11:22 33.81750 24.64619 33098 ft 524 kts 140°
2026-05-09 11:22 33.76311 24.70450 33097 ft 524 kts 140°
2026-05-09 11:23 33.70871 24.76264 33098 ft 523 kts 140°
2026-05-09 11:23 33.65427 24.82073 33098 ft 523 kts 140°
2026-05-09 11:24 33.60020 24.87833 33092 ft 523 kts 140°
2026-05-09 11:24 33.54584 24.93617 33098 ft 522 kts 140°
2026-05-09 11:25 33.49147 24.99390 33098 ft 522 kts 140°
2026-05-09 11:25 33.43802 25.05056 33100 ft 522 kts 140°
2026-05-09 11:26 33.38365 25.10811 33100 ft 521 kts 140°
2026-05-09 11:26 33.32939 25.16542 33101 ft 521 kts 141°
2026-05-09 11:27 33.27503 25.22275 33102 ft 521 kts 141°
2026-05-09 11:27 33.22067 25.27997 33106 ft 521 kts 141°
2026-05-09 11:28 33.16630 25.33711 33109 ft 521 kts 141°
2026-05-09 11:28 33.11186 25.39423 33105 ft 521 kts 141°
2026-05-09 11:29 33.05746 25.45121 33109 ft 521 kts 141°
2026-05-09 11:29 33.00305 25.50810 33099 ft 520 kts 141°
2026-05-09 11:30 32.94884 25.56468 33110 ft 519 kts 141°
2026-05-09 11:30 32.89458 25.62122 33111 ft 518 kts 141°
2026-05-09 11:31 32.84038 25.67761 33110 ft 517 kts 141°
2026-05-09 11:31 32.78623 25.73384 33110 ft 517 kts 141°
2026-05-09 11:32 32.73209 25.78996 33112 ft 516 kts 141°
2026-05-09 11:32 32.67799 25.84596 33105 ft 516 kts 140°
2026-05-09 11:33 32.62391 25.90184 33110 ft 515 kts 140°
2026-05-09 11:33 32.54280 25.98548 33120 ft 515 kts 140°
2026-05-09 11:34 32.48966 26.04015 33108 ft 515 kts 141°
2026-05-09 11:34 32.43558 26.09572 33111 ft 515 kts 141°
2026-05-09 11:35 32.38142 26.15126 33104 ft 515 kts 140°
2026-05-09 11:35 32.32733 26.20664 33108 ft 514 kts 141°
2026-05-09 11:36 32.27321 26.26198 33109 ft 514 kts 141°
2026-05-09 11:36 32.21914 26.31716 33112 ft 514 kts 141°
2026-05-09 11:37 32.16510 26.37222 33128 ft 513 kts 141°
2026-05-09 11:37 32.11100 26.42725 33113 ft 513 kts 141°
2026-05-09 11:38 32.05694 26.48216 33105 ft 513 kts 141°
2026-05-09 11:38 32.00288 26.53697 33118 ft 513 kts 141°
2026-05-09 11:39 31.94900 26.59153 33125 ft 512 kts 141°
2026-05-09 11:40 31.86834 26.67302 33122 ft 511 kts 141°
2026-05-09 11:40 31.81432 26.72749 33120 ft 511 kts 141°
2026-05-09 11:41 31.76033 26.78184 33120 ft 511 kts 141°
2026-05-09 11:41 31.70638 26.83607 33123 ft 510 kts 141°
2026-05-09 11:42 31.65253 26.89011 33128 ft 508 kts 141°
2026-05-09 11:42 31.59879 26.94396 33125 ft 507 kts 141°
2026-05-09 11:43 31.54518 26.99760 33128 ft 506 kts 141°
2026-05-09 11:43 31.49245 27.05026 33129 ft 506 kts 141°
2026-05-09 11:44 31.43887 27.10370 33132 ft 506 kts 141°
2026-05-09 11:44 31.38534 27.15703 33135 ft 505 kts 141°
2026-05-09 11:45 31.33278 27.21142 33157 ft 506 kts 135°
2026-05-09 11:45 31.28801 27.27493 33156 ft 508 kts 125°
2026-05-09 11:46 31.24904 27.34370 33159 ft 508 kts 124°
2026-05-09 11:46 31.20986 27.41236 33146 ft 508 kts 125°
2026-05-09 11:47 31.17026 27.48063 33143 ft 508 kts 126°
2026-05-09 11:47 31.13079 27.54848 33135 ft 509 kts 126°
2026-05-09 11:48 31.09053 27.61640 33133 ft 509 kts 126°
2026-05-09 11:48 31.04991 27.68412 33119 ft 509 kts 127°
2026-05-09 11:49 31.00932 27.75179 33128 ft 509 kts 127°
2026-05-09 11:49 30.96875 27.81946 33124 ft 509 kts 127°
2026-05-09 11:50 30.92817 27.88712 33119 ft 509 kts 127°
2026-05-09 11:50 30.88759 27.95466 33122 ft 509 kts 127°
2026-05-09 11:51 30.84761 28.02107 33122 ft 509 kts 127°
2026-05-09 11:51 30.80696 28.08848 33106 ft 509 kts 128°
2026-05-09 11:52 30.76623 28.15590 33119 ft 510 kts 128°
2026-05-09 11:52 30.72539 28.22338 33117 ft 511 kts 128°
2026-05-09 11:53 30.68446 28.29090 33115 ft 511 kts 128°
2026-05-09 11:53 30.65012 28.34746 33103 ft 512 kts 128°
2026-05-09 11:54 30.60944 28.41438 33109 ft 509 kts 128°
2026-05-09 11:54 30.56838 28.48180 33089 ft 507 kts 128°
2026-05-09 11:55 30.52801 28.54798 33096 ft 505 kts 128°
2026-05-09 11:56 30.40615 28.74705 33095 ft 506 kts 128°
2026-05-09 11:57 30.36524 28.81365 33092 ft 509 kts 128°
2026-05-09 11:57 30.32411 28.88052 33084 ft 511 kts 128°
2026-05-09 11:58 30.28284 28.94751 33083 ft 511 kts 128°
2026-05-09 11:58 30.24222 29.01335 33081 ft 512 kts 128°
2026-05-09 11:59 30.20080 29.08037 33070 ft 512 kts 128°
2026-05-09 11:59 30.15934 29.14727 33073 ft 512 kts 128°
2026-05-09 12:00 30.11788 29.21412 33073 ft 512 kts 128°
2026-05-09 12:00 30.07709 29.28143 33079 ft 511 kts 127°
2026-05-09 12:01 30.03663 29.34887 33073 ft 511 kts 127°
2026-05-09 12:01 29.99615 29.41607 33070 ft 510 kts 127°
2026-05-09 12:02 29.95557 29.48313 33071 ft 510 kts 127°
2026-05-09 12:02 29.91492 29.55012 33067 ft 509 kts 127°
2026-05-09 12:03 29.87432 29.61694 33072 ft 509 kts 127°
2026-05-09 12:03 29.83367 29.68373 33072 ft 509 kts 127°
2026-05-09 12:04 29.79300 29.75046 33070 ft 509 kts 127°
2026-05-09 12:04 29.75257 29.81668 33065 ft 509 kts 127°
2026-05-09 12:05 29.71185 29.88326 33069 ft 509 kts 128°
2026-05-09 12:05 29.67110 29.94981 33066 ft 509 kts 128°
2026-05-09 12:06 29.63097 30.01521 33062 ft 509 kts 128°
2026-05-09 12:06 29.59018 30.08160 33063 ft 509 kts 128°
2026-05-09 12:07 29.54936 30.14792 33061 ft 509 kts 128°
2026-05-09 12:07 29.50848 30.21425 33061 ft 509 kts 128°
2026-05-09 12:08 29.46758 30.28050 33063 ft 509 kts 128°
2026-05-09 12:08 29.42664 30.34673 33051 ft 509 kts 128°
2026-05-09 12:09 29.38394 30.41120 33035 ft 505 kts 135°
2026-05-09 12:09 29.33532 30.46903 33046 ft 503 kts 137°
2026-05-09 12:10 29.23761 30.58390 33047 ft 503 kts 137°
2026-05-09 12:11 29.18903 30.64160 33045 ft 503 kts 136°
2026-05-09 12:11 29.14043 30.69929 33043 ft 504 kts 137°
2026-05-09 12:12 29.09174 30.75699 33041 ft 504 kts 137°
2026-05-09 12:12 29.04308 30.81455 33031 ft 504 kts 137°
2026-05-09 12:13 28.99444 30.87198 33042 ft 503 kts 137°
2026-05-09 12:13 28.94574 30.92941 33041 ft 503 kts 137°
2026-05-09 12:14 28.89705 30.98674 33026 ft 503 kts 137°
2026-05-09 12:14 28.84914 31.04307 33034 ft 503 kts 137°
2026-05-09 12:15 28.80039 31.10033 33029 ft 503 kts 137°
2026-05-09 12:15 28.75160 31.15755 33038 ft 503 kts 137°
2026-05-09 12:16 28.70275 31.21476 33030 ft 503 kts 137°
2026-05-09 12:16 28.65497 31.27317 33016 ft 505 kts 135°
2026-05-09 12:17 28.60823 31.33291 33030 ft 506 kts 134°
2026-05-09 12:17 28.56127 31.39270 33023 ft 507 kts 135°
2026-05-09 12:18 28.51404 31.45221 33031 ft 507 kts 135°
2026-05-09 12:18 28.46665 31.51164 33027 ft 508 kts 135°
2026-05-09 12:19 28.41921 31.57106 33020 ft 508 kts 135°
2026-05-09 12:19 28.37174 31.63044 33020 ft 508 kts 135°
2026-05-09 12:20 28.32460 31.68937 33017 ft 507 kts 135°
2026-05-09 12:20 28.27714 31.74860 33000 ft 507 kts 135°
2026-05-09 12:21 28.22964 31.80779 33004 ft 507 kts 135°
2026-05-09 12:21 28.18209 31.86696 33002 ft 508 kts 135°
2026-05-09 12:22 28.13443 31.92619 33003 ft 509 kts 135°
2026-05-09 12:22 28.08673 31.98541 32988 ft 509 kts 135°
2026-05-09 12:23 28.04074 32.04466 32995 ft 511 kts 130°
2026-05-09 12:23 28.00246 32.11262 32978 ft 514 kts 120°
2026-05-09 12:24 27.96881 32.18389 32967 ft 514 kts 120°
2026-05-09 12:24 27.93499 32.25521 32970 ft 515 kts 121°
2026-05-09 12:25 27.90080 32.32631 32934 ft 515 kts 121°
2026-05-09 12:25 27.86644 32.39727 32941 ft 515 kts 121°
2026-05-09 12:26 27.83198 32.46827 32939 ft 515 kts 121°
2026-05-09 12:26 27.79751 32.53925 32933 ft 515 kts 121°
2026-05-09 12:27 27.76299 32.61024 32932 ft 516 kts 121°
2026-05-09 12:27 27.72869 32.68066 32930 ft 515 kts 121°
2026-05-09 12:28 27.69414 32.75147 32922 ft 515 kts 121°
2026-05-09 12:28 27.65954 32.82227 32916 ft 515 kts 121°
2026-05-09 12:29 27.62492 32.89296 32904 ft 515 kts 121°
2026-05-09 12:29 27.59030 32.96355 32931 ft 514 kts 121°
2026-05-09 12:30 27.55631 33.03277 32907 ft 514 kts 121°
2026-05-09 12:30 27.50432 33.13842 32911 ft 514 kts 122°
2026-05-09 12:31 27.45227 33.24391 32927 ft 514 kts 122°
2026-05-09 12:32 27.41753 33.31419 32912 ft 514 kts 122°
2026-05-09 12:32 27.38275 33.38444 32927 ft 514 kts 122°
2026-05-09 12:33 27.34793 33.45464 32911 ft 514 kts 122°
2026-05-09 12:33 27.31311 33.52479 32921 ft 513 kts 122°
2026-05-09 12:34 27.27826 33.59488 32910 ft 513 kts 122°
2026-05-09 12:34 27.24342 33.66487 32923 ft 513 kts 122°
2026-05-09 12:35 27.20874 33.73443 32914 ft 513 kts 122°
2026-05-09 12:35 27.17442 33.80520 32919 ft 514 kts 118°
2026-05-09 12:36 27.14753 33.87906 32914 ft 515 kts 114°
2026-05-09 12:36 27.12153 33.95409 32908 ft 515 kts 114°
2026-05-09 12:37 27.09555 34.02756 32908 ft 515 kts 114°
2026-05-09 12:37 27.06883 34.10217 32898 ft 515 kts 114°
2026-05-09 12:38 27.04210 34.17673 32894 ft 515 kts 114°
2026-05-09 12:38 27.01537 34.25123 32884 ft 515 kts 114°
2026-05-09 12:39 26.98869 34.32567 32883 ft 515 kts 114°
2026-05-09 12:39 26.96632 34.38806 32882 ft 514 kts 114°
2026-05-09 12:40 26.93961 34.46241 32885 ft 514 kts 114°
2026-05-09 12:40 26.91286 34.53674 32873 ft 514 kts 114°
2026-05-09 12:41 26.88606 34.61103 32883 ft 514 kts 114°
2026-05-09 12:41 26.85924 34.68524 32871 ft 514 kts 114°
2026-05-09 12:42 26.83237 34.75947 32867 ft 514 kts 114°
2026-05-09 12:42 26.80547 34.83362 32871 ft 514 kts 114°
2026-05-09 12:43 26.77857 34.90768 32864 ft 514 kts 114°
2026-05-09 12:43 26.75174 34.98125 32868 ft 514 kts 115°
2026-05-09 12:44 26.72509 35.05394 32866 ft 514 kts 115°
2026-05-09 12:44 26.69795 35.12786 32870 ft 514 kts 115°
2026-05-09 12:45 26.67081 35.20172 32868 ft 514 kts 115°
2026-05-09 12:45 26.64361 35.27559 32856 ft 514 kts 115°
2026-05-09 12:46 26.61641 35.34935 32861 ft 513 kts 115°
2026-05-09 12:46 26.58916 35.42309 32863 ft 513 kts 115°
2026-05-09 12:47 26.56185 35.49680 32858 ft 513 kts 115°
2026-05-09 12:47 26.53395 35.57014 32864 ft 513 kts 116°
2026-05-09 12:48 26.50579 35.64331 32860 ft 513 kts 116°
2026-05-09 12:48 26.47766 35.71649 32858 ft 513 kts 116°
2026-05-09 12:49 26.44956 35.78967 32844 ft 513 kts 116°
2026-05-09 12:49 26.42145 35.86279 32857 ft 513 kts 116°
2026-05-09 12:50 26.39330 35.93587 32860 ft 513 kts 116°
2026-05-09 12:50 26.36559 36.00768 32861 ft 513 kts 116°
2026-05-09 12:51 26.33736 36.08071 32861 ft 513 kts 116°
2026-05-09 12:51 26.30910 36.15367 32863 ft 513 kts 116°
2026-05-09 12:52 26.28079 36.22665 32861 ft 513 kts 116°
2026-05-09 12:52 26.25244 36.29958 32858 ft 513 kts 116°
2026-05-09 12:53 26.22406 36.37248 32857 ft 513 kts 116°
2026-05-09 12:53 26.19568 36.44528 32858 ft 512 kts 116°
2026-05-09 12:54 26.16562 36.51702 32854 ft 510 kts 121°
2026-05-09 12:54 26.13144 36.58608 32875 ft 509 kts 122°
2026-05-09 12:55 26.09701 36.65495 32866 ft 509 kts 122°
2026-05-09 12:55 26.06283 36.72396 32865 ft 509 kts 121°
2026-05-09 12:56 26.02900 36.79254 32858 ft 509 kts 121°
2026-05-09 12:56 25.99500 36.86141 32865 ft 508 kts 121°
2026-05-09 12:57 25.96093 36.93026 32865 ft 508 kts 121°
2026-05-09 12:57 25.92685 36.99900 32860 ft 508 kts 121°
2026-05-09 12:58 25.89336 37.06644 32855 ft 508 kts 121°
2026-05-09 12:58 25.85925 37.13505 32851 ft 507 kts 121°
2026-05-09 12:59 25.82515 37.20356 32851 ft 507 kts 121°
2026-05-09 12:59 25.79099 37.27207 32850 ft 507 kts 121°
2026-05-09 13:00 25.75692 37.34047 32859 ft 506 kts 121°
2026-05-09 13:00 25.72287 37.40880 32862 ft 506 kts 121°
2026-05-09 13:01 25.68881 37.47706 32873 ft 506 kts 121°
2026-05-09 13:01 25.65476 37.54518 32890 ft 505 kts 121°
2026-05-09 13:02 25.62073 37.61330 32878 ft 505 kts 121°
2026-05-09 13:02 25.58660 37.68129 32889 ft 505 kts 121°
2026-05-09 13:03 25.55237 37.74930 32883 ft 506 kts 121°
2026-05-09 13:03 25.51817 37.81732 32852 ft 506 kts 121°
2026-05-09 13:04 25.48392 37.88538 32872 ft 506 kts 121°
2026-05-09 13:04 25.44964 37.95335 32860 ft 506 kts 121°
2026-05-09 13:05 25.41595 38.02003 32834 ft 506 kts 121°
2026-05-09 13:05 25.38166 38.08784 32834 ft 505 kts 121°
2026-05-09 13:06 25.34735 38.15556 32847 ft 505 kts 122°
2026-05-09 13:06 25.31302 38.22322 32846 ft 504 kts 121°
2026-05-09 13:07 25.27869 38.29079 32854 ft 504 kts 121°
2026-05-09 13:07 25.24436 38.35825 32841 ft 504 kts 122°
2026-05-09 13:08 25.21001 38.42569 32843 ft 504 kts 122°
2026-05-09 13:08 25.17562 38.49310 32849 ft 504 kts 122°
2026-05-09 13:09 25.14143 38.56001 32846 ft 504 kts 122°
2026-05-09 13:09 25.10697 38.62738 32849 ft 504 kts 121°
2026-05-09 13:10 25.07250 38.69472 32873 ft 505 kts 122°
2026-05-09 13:10 25.03790 38.76222 32888 ft 506 kts 122°
2026-05-09 13:11 25.00322 38.82978 32880 ft 507 kts 122°
2026-05-09 13:11 24.96849 38.89736 32884 ft 507 kts 122°
2026-05-09 13:12 24.93351 38.96505 32890 ft 509 kts 122°
2026-05-09 13:12 24.89892 39.03156 32902 ft 510 kts 122°
2026-05-09 13:13 24.86369 39.09932 32897 ft 510 kts 122°
2026-05-09 13:13 24.82845 39.16707 32903 ft 509 kts 122°
2026-05-09 13:14 24.79329 39.23455 32900 ft 508 kts 122°
2026-05-09 13:16 24.65314 39.50277 32920 ft 506 kts 122°
2026-05-09 13:16 24.61801 39.56980 32918 ft 506 kts 122°
2026-05-09 13:17 24.58278 39.63692 32914 ft 507 kts 122°
2026-05-09 13:17 24.55314 39.70735 32926 ft 511 kts 110°
2026-05-09 13:18 24.53798 39.78379 32909 ft 515 kts 98°
2026-05-09 13:18 24.53104 39.86223 32912 ft 517 kts 97°
2026-05-09 13:19 24.52424 39.94090 32916 ft 518 kts 97°
2026-05-09 13:19 24.51697 40.01846 32917 ft 519 kts 98°
2026-05-09 13:20 24.50926 40.09739 32912 ft 521 kts 98°
2026-05-09 13:20 24.50149 40.17648 32919 ft 521 kts 98°
2026-05-09 13:21 24.49370 40.25564 32917 ft 522 kts 98°
2026-05-09 13:21 24.48588 40.33488 32919 ft 522 kts 98°
2026-05-09 13:22 24.47802 40.41414 32918 ft 523 kts 98°
2026-05-09 13:22 24.47010 40.49346 32920 ft 523 kts 98°
2026-05-09 13:23 24.45017 40.69190 32931 ft 523 kts 98°
2026-05-09 13:24 24.44220 40.77124 32938 ft 523 kts 98°
2026-05-09 13:24 24.43554 40.83721 32933 ft 523 kts 98°
2026-05-09 13:25 24.42750 40.91646 32934 ft 523 kts 98°
2026-05-09 13:26 24.41549 41.03402 32947 ft 523 kts 98°
2026-05-09 13:26 24.40729 41.11334 32946 ft 524 kts 98°
2026-05-09 13:27 24.39891 41.19274 32947 ft 524 kts 98°
2026-05-09 13:27 24.39048 41.27220 32958 ft 525 kts 98°
2026-05-09 13:28 24.38202 41.35176 32955 ft 526 kts 99°
2026-05-09 13:28 24.37351 41.43149 32961 ft 527 kts 99°
2026-05-09 13:29 24.36495 41.51131 32964 ft 528 kts 99°
2026-05-09 13:29 24.35632 41.59134 32958 ft 529 kts 99°
2026-05-09 13:30 24.34764 41.67144 32974 ft 530 kts 99°
2026-05-09 13:30 24.33891 41.75171 32983 ft 531 kts 99°
2026-05-09 13:31 24.32885 41.83186 32988 ft 530 kts 104°
2026-05-09 13:31 24.30965 41.90958 32985 ft 527 kts 109°
2026-05-09 13:32 24.28860 41.98657 32980 ft 527 kts 109°
2026-05-09 13:32 24.25811 42.10035 32983 ft 528 kts 109°
2026-05-09 13:33 24.23770 42.17765 32987 ft 528 kts 109°
2026-05-09 13:33 24.21724 42.25501 32988 ft 530 kts 109°
2026-05-09 13:34 24.19664 42.33253 32992 ft 531 kts 109°
2026-05-09 13:34 24.17592 42.41031 32998 ft 532 kts 109°
2026-05-09 13:35 24.15512 42.48822 32997 ft 533 kts 109°
2026-05-09 13:35 24.13427 42.56621 33004 ft 534 kts 109°
2026-05-09 13:36 24.11394 42.64216 32957 ft 511 kts 110°
2026-05-09 13:36 24.10423 42.67860 32954 ft 490 kts 110°
2026-05-09 13:36 24.09471 42.71405 33028 ft 486 kts 110°
2026-05-09 13:37 24.07507 42.78651 33096 ft 507 kts 110°
2026-05-09 13:37 24.05473 42.86191 33258 ft 526 kts 110°
2026-05-09 13:38 24.03371 42.93971 33382 ft 541 kts 110°
2026-05-09 13:38 24.01249 43.01808 33480 ft 552 kts 110°
2026-05-09 13:39 24.00170 43.05794 33585 ft 555 kts 110°
2026-05-09 13:39 23.99074 43.09837 33717 ft 557 kts 110°
2026-05-09 13:39 23.97971 43.13907 33853 ft 559 kts 111°
2026-05-09 13:39 23.96863 43.17989 34021 ft 560 kts 111°
2026-05-09 13:40 23.95754 43.22070 34236 ft 560 kts 111°
2026-05-09 13:40 23.94650 43.26135 34585 ft 555 kts 111°
2026-05-09 13:40 23.93564 43.30130 35004 ft 550 kts 112°
2026-05-09 13:40 23.92471 43.34138 35032 ft 551 kts 112°
2026-05-09 13:41 23.90273 43.42165 35036 ft 550 kts 112°
2026-05-09 13:41 23.88093 43.50126 35023 ft 544 kts 112°
2026-05-09 13:42 23.85930 43.58006 35017 ft 539 kts 112°
2026-05-09 13:42 23.83772 43.65840 35018 ft 538 kts 112°
2026-05-09 13:43 23.81614 43.73665 35019 ft 538 kts 112°
2026-05-09 13:43 23.79449 43.81499 35012 ft 540 kts 112°
2026-05-09 13:44 23.77484 43.89439 35004 ft 546 kts 106°
2026-05-09 13:44 23.76607 43.97741 35009 ft 553 kts 99°
2026-05-09 13:45 23.76078 44.05995 34984 ft 556 kts 99°
2026-05-09 13:45 23.75502 44.14423 34989 ft 557 kts 99°
2026-05-09 13:46 23.74873 44.22857 34994 ft 557 kts 99°
2026-05-09 13:46 23.74224 44.31288 34994 ft 558 kts 99°
2026-05-09 13:47 23.73575 44.39724 34999 ft 558 kts 99°
2026-05-09 13:47 23.72924 44.48167 35001 ft 559 kts 99°
2026-05-09 13:48 23.72267 44.56628 35013 ft 560 kts 99°
2026-05-09 13:48 23.71604 44.65107 34993 ft 561 kts 99°
2026-05-09 13:49 23.70935 44.73599 35002 ft 563 kts 99°
2026-05-09 13:49 23.70262 44.82109 35011 ft 564 kts 99°
2026-05-09 13:50 23.69580 44.90639 35005 ft 564 kts 99°
2026-05-09 13:50 23.68896 44.99111 35014 ft 564 kts 99°
2026-05-09 13:51 23.68214 45.07497 34993 ft 564 kts 100°
2026-05-09 13:51 23.67517 45.16026 34997 ft 564 kts 100°
2026-05-09 13:52 23.66816 45.24548 34998 ft 564 kts 100°
2026-05-09 13:52 23.66112 45.33077 34996 ft 565 kts 100°
2026-05-09 13:53 23.65404 45.41613 34989 ft 565 kts 100°
2026-05-09 13:53 23.64690 45.50155 34988 ft 566 kts 100°
2026-05-09 13:54 23.63972 45.58696 34970 ft 565 kts 100°
2026-05-09 13:54 23.63252 45.67216 34969 ft 563 kts 100°
2026-05-09 13:55 23.62529 45.75715 34968 ft 562 kts 100°
2026-05-09 13:55 23.61803 45.84197 34967 ft 561 kts 100°
2026-05-09 13:56 23.61074 45.92667 34972 ft 561 kts 100°
2026-05-09 13:56 23.60352 46.00993 34967 ft 562 kts 100°
2026-05-09 13:57 23.59620 46.09417 34957 ft 550 kts 100°
2026-05-09 13:57 23.59266 46.13522 34952 ft 538 kts 101°
2026-05-09 13:57 23.58912 46.17570 34968 ft 537 kts 101°
2026-05-09 13:58 23.58192 46.25673 34973 ft 536 kts 101°
2026-05-09 13:58 23.57467 46.33768 34988 ft 536 kts 101°
2026-05-09 13:59 23.56747 46.41859 34973 ft 536 kts 101°
2026-05-09 13:59 23.56023 46.49946 34974 ft 536 kts 101°
2026-05-09 14:00 23.55536 46.55293 34976 ft 535 kts 101°
2026-05-09 14:00 23.54542 46.66080 34981 ft 534 kts 101°
2026-05-09 14:01 23.53798 46.74121 34958 ft 533 kts 101°
2026-05-09 14:01 23.53049 46.82157 34950 ft 532 kts 101°
2026-05-09 14:02 23.52298 46.90180 34949 ft 532 kts 101°
2026-05-09 14:02 23.51549 46.98137 34963 ft 531 kts 101°
2026-05-09 14:03 23.50804 47.06010 34940 ft 532 kts 101°
2026-05-09 14:03 23.50039 47.14036 34925 ft 533 kts 100°
2026-05-09 14:04 23.49271 47.22066 34939 ft 533 kts 101°
2026-05-09 14:04 23.48498 47.30104 34942 ft 534 kts 101°
2026-05-09 14:05 23.47720 47.38140 34934 ft 534 kts 101°
2026-05-09 14:05 23.46939 47.46184 34924 ft 534 kts 101°
2026-05-09 14:06 23.46153 47.54231 34932 ft 534 kts 101°
2026-05-09 14:06 23.45369 47.62277 34924 ft 534 kts 100°
2026-05-09 14:07 23.44583 47.70322 34915 ft 534 kts 100°
2026-05-09 14:07 23.43793 47.78370 34919 ft 534 kts 100°
2026-05-09 14:08 23.42997 47.86418 34915 ft 534 kts 100°
2026-05-09 14:08 23.42198 47.94463 34902 ft 534 kts 100°
2026-05-09 14:09 23.41408 48.02373 34902 ft 534 kts 100°
2026-05-09 14:09 23.40601 48.10412 34895 ft 534 kts 100°
2026-05-09 14:10 23.39390 48.22404 34890 ft 533 kts 100°
2026-05-09 14:11 23.38570 48.30478 34883 ft 533 kts 100°
2026-05-09 14:11 23.37952 48.38467 34883 ft 534 kts 96°
2026-05-09 14:12 23.37654 48.46556 34884 ft 535 kts 95°
2026-05-09 14:12 23.37374 48.54652 34884 ft 535 kts 96°
2026-05-09 14:13 23.37113 48.61383 34881 ft 536 kts 96°
2026-05-09 14:15 23.35749 48.93807 34866 ft 536 kts 96°
2026-05-09 14:15 23.35406 49.01772 34868 ft 536 kts 96°
2026-05-09 14:16 23.34821 49.09830 34863 ft 532 kts 102°
2026-05-09 14:16 23.33672 49.17767 34871 ft 531 kts 103°
2026-05-09 14:17 23.32468 49.25695 34868 ft 531 kts 103°
2026-05-09 14:17 23.31294 49.33628 34867 ft 531 kts 103°
2026-05-09 14:18 23.30141 49.41571 34871 ft 532 kts 103°
2026-05-09 14:18 23.28990 49.49520 34868 ft 531 kts 102°
2026-05-09 14:19 23.27836 49.57457 34863 ft 531 kts 102°
2026-05-09 14:19 23.26677 49.65376 34871 ft 530 kts 103°
2026-05-09 14:20 23.25513 49.73292 34868 ft 530 kts 103°
2026-05-09 14:20 23.24346 49.81201 34869 ft 530 kts 103°
2026-05-09 14:21 23.22590 49.93061 34874 ft 530 kts 103°
2026-05-09 14:21 23.21442 50.00770 34868 ft 530 kts 102°
2026-05-09 14:22 23.20264 50.08664 34866 ft 528 kts 102°
2026-05-09 14:22 23.19084 50.16543 34866 ft 528 kts 103°
2026-05-09 14:23 23.17902 50.24406 34870 ft 527 kts 102°
2026-05-09 14:23 23.16719 50.32249 34869 ft 526 kts 103°
2026-05-09 14:24 23.15531 50.40089 34865 ft 525 kts 103°
2026-05-09 14:24 23.14342 50.47921 34868 ft 526 kts 103°
2026-05-09 14:25 23.13147 50.55754 34863 ft 526 kts 102°
2026-05-09 14:25 23.11949 50.63590 34867 ft 525 kts 103°
2026-05-09 14:26 23.10747 50.71420 34867 ft 525 kts 103°
2026-05-09 14:26 23.09543 50.79239 34865 ft 525 kts 103°
2026-05-09 14:27 23.08334 50.87065 34863 ft 525 kts 103°
2026-05-09 14:27 23.07121 50.94888 34867 ft 525 kts 103°
2026-05-09 14:28 23.05925 51.02573 34867 ft 525 kts 103°
2026-05-09 14:28 23.04705 51.10393 34856 ft 525 kts 103°
2026-05-09 14:29 23.03481 51.18208 34865 ft 525 kts 103°
2026-05-09 14:29 23.02256 51.26010 34869 ft 524 kts 103°
2026-05-09 14:30 23.01027 51.33801 34871 ft 524 kts 103°
2026-05-09 14:30 22.99806 51.41524 34869 ft 523 kts 103°
2026-05-09 14:31 22.98571 51.49307 34868 ft 523 kts 103°
2026-05-09 14:31 22.97333 51.57085 34872 ft 523 kts 103°
2026-05-09 14:32 22.96092 51.64859 34871 ft 523 kts 103°
2026-05-09 14:32 22.94847 51.72626 34871 ft 523 kts 103°
2026-05-09 14:33 22.93597 51.80401 34865 ft 523 kts 103°
2026-05-09 14:33 22.92345 51.88170 34865 ft 523 kts 103°
2026-05-09 14:34 22.91088 51.95939 34872 ft 523 kts 103°
2026-05-09 14:34 22.89850 52.03571 34871 ft 523 kts 103°
2026-05-09 14:35 22.88585 52.11340 34870 ft 523 kts 103°
2026-05-09 14:35 22.87316 52.19110 34868 ft 523 kts 103°
2026-05-09 14:36 22.86043 52.26881 34866 ft 523 kts 103°
2026-05-09 14:36 22.84768 52.34647 34867 ft 523 kts 103°
2026-05-09 14:37 22.83489 52.42410 34864 ft 523 kts 103°
2026-05-09 14:37 22.82342 52.50191 34870 ft 524 kts 97°
2026-05-09 14:38 22.82069 52.57999 34842 ft 505 kts 93°
2026-05-09 14:38 22.82012 52.61746 34844 ft 490 kts 93°
2026-05-09 14:38 22.81955 52.65381 34841 ft 476 kts 93°
2026-05-09 14:39 22.81804 52.72573 34865 ft 478 kts 94°
2026-05-09 14:39 22.81620 52.79758 34858 ft 476 kts 94°
2026-05-09 14:40 22.81426 52.86914 34856 ft 475 kts 94°
2026-05-09 14:40 22.81230 52.94057 34859 ft 474 kts 94°
2026-05-09 14:41 22.81036 53.01066 34846 ft 473 kts 94°
2026-05-09 14:41 22.80837 53.08188 34855 ft 472 kts 94°
2026-05-09 14:42 22.80635 53.15297 34854 ft 472 kts 94°
2026-05-09 14:42 22.80429 53.22408 34855 ft 472 kts 94°
2026-05-09 14:43 22.80220 53.29519 34847 ft 472 kts 94°
2026-05-09 14:43 22.80008 53.36631 34856 ft 472 kts 94°
2026-05-09 14:44 22.79795 53.43705 34851 ft 473 kts 94°
2026-05-09 14:44 22.79576 53.50833 34846 ft 474 kts 94°
2026-05-09 14:45 22.79354 53.57967 34845 ft 474 kts 94°
2026-05-09 14:45 22.79129 53.65105 34847 ft 474 kts 94°
2026-05-09 14:46 22.78901 53.72250 34839 ft 474 kts 94°
2026-05-09 14:46 22.78669 53.79392 34836 ft 474 kts 94°
2026-05-09 14:47 22.78433 53.86543 34857 ft 480 kts 94°
2026-05-09 14:47 22.78187 53.93916 34862 ft 499 kts 94°
2026-05-09 14:48 22.78421 54.01427 34851 ft 516 kts 84°
2026-05-09 14:48 22.79831 54.09147 34848 ft 527 kts 77°
2026-05-09 14:49 22.81487 54.16894 34831 ft 528 kts 77°
2026-05-09 14:49 22.83107 54.24644 34821 ft 527 kts 78°
2026-05-09 14:50 22.84679 54.32388 34828 ft 525 kts 78°
2026-05-09 14:50 22.86230 54.40116 34827 ft 524 kts 78°
2026-05-09 14:51 22.87775 54.47822 34824 ft 523 kts 78°
2026-05-09 14:51 22.89317 54.55519 34821 ft 522 kts 78°
2026-05-09 14:52 22.90854 54.63211 34819 ft 522 kts 78°
2026-05-09 14:52 22.92383 54.70880 34821 ft 522 kts 78°
2026-05-09 14:53 22.93914 54.78581 34824 ft 523 kts 78°
2026-05-09 14:53 22.95443 54.86291 34832 ft 523 kts 78°
2026-05-09 14:54 22.96960 54.93962 34831 ft 524 kts 78°
2026-05-09 14:54 22.98460 55.01567 34826 ft 524 kts 78°
2026-05-09 14:55 22.99980 55.09295 34840 ft 523 kts 78°
2026-05-09 14:55 23.01580 55.16985 34834 ft 520 kts 70°
2026-05-09 14:56 23.03197 55.20532 34841 ft 518 kts 53°
2026-05-09 14:56 23.05604 55.23409 34854 ft 514 kts 38°
2026-05-09 14:56 23.08517 55.25636 34853 ft 511 kts 26°
2026-05-09 14:56 23.11740 55.27061 34841 ft 504 kts 12°
2026-05-09 14:57 23.18456 55.28883 34860 ft 506 kts 11°
2026-05-09 14:57 23.25302 55.30771 34858 ft 509 kts 12°
2026-05-09 14:58 23.32153 55.32764 34859 ft 511 kts 12°
2026-05-09 14:58 23.37865 55.34452 34854 ft 511 kts 12°
2026-05-09 14:59 23.44727 55.36476 34860 ft 511 kts 12°
2026-05-09 14:59 23.52598 55.38793 34863 ft 510 kts 12°
2026-05-09 15:00 23.59446 55.40824 34869 ft 510 kts 12°
2026-05-09 15:00 23.66296 55.42864 34874 ft 510 kts 12°
2026-05-09 15:01 23.76566 55.45924 34874 ft 510 kts 12°
2026-05-09 15:02 23.83420 55.47968 34884 ft 511 kts 12°
2026-05-09 15:02 23.90227 55.49996 34608 ft 499 kts 12°
2026-05-09 15:02 23.93562 55.50988 34058 ft 496 kts 12°
2026-05-09 15:03 23.96894 55.52031 33086 ft 503 kts 16°
2026-05-09 15:03 24.00131 55.53524 31961 ft 513 kts 25°
2026-05-09 15:03 24.03232 55.55519 30852 ft 522 kts 33°
2026-05-09 15:03 24.06107 55.57979 29832 ft 527 kts 41°
2026-05-09 15:04 24.08772 55.60649 29063 ft 523 kts 42°
2026-05-09 15:04 24.11413 55.63353 28511 ft 515 kts 42°
2026-05-09 15:06 24.28479 55.80423 24679 ft 483 kts 41°
2026-05-09 15:06 24.30924 55.82852 24138 ft 479 kts 41°
2026-05-09 15:06 24.33385 55.85300 23615 ft 476 kts 42°
2026-05-09 15:06 24.35826 55.87730 22999 ft 473 kts 42°
2026-05-09 15:07 24.38252 55.90145 22412 ft 469 kts 42°
2026-05-09 15:07 24.40652 55.92540 21859 ft 464 kts 42°
2026-05-09 15:07 24.43030 55.94917 21302 ft 461 kts 42°
2026-05-09 15:07 24.45390 55.97278 20729 ft 458 kts 42°
2026-05-09 15:08 24.47736 55.99625 20155 ft 455 kts 42°
2026-05-09 15:08 24.52308 56.04202 19170 ft 448 kts 42°
2026-05-09 15:08 24.54621 56.06519 19018 ft 453 kts 42°
2026-05-09 15:09 24.56954 56.08843 18902 ft 450 kts 41°
2026-05-09 15:10 24.77495 56.15076 18849 ft 434 kts 356°
2026-05-09 15:11 24.80429 56.14729 18845 ft 415 kts 346°
2026-05-09 15:11 24.83147 56.13916 18834 ft 396 kts 336°
2026-05-09 15:11 24.85628 56.12717 18410 ft 389 kts 332°
2026-05-09 15:11 24.88107 56.11431 17518 ft 400 kts 332°
2026-05-09 15:12 24.90665 56.10114 16706 ft 408 kts 332°
2026-05-09 15:12 24.93205 56.08838 16589 ft 395 kts 332°
2026-05-09 15:12 24.95667 56.07616 16502 ft 381 kts 332°
2026-05-09 15:12 24.97884 56.06185 16357 ft 360 kts 315°
2026-05-09 15:13 24.99540 56.04259 16244 ft 332 kts 306°
2026-05-09 15:13 25.00994 56.02410 15908 ft 312 kts 304°
2026-05-09 15:13 25.02063 56.00417 15122 ft 297 kts 281°
2026-05-09 15:13 25.02566 55.98228 14291 ft 295 kts 277°
2026-05-09 15:14 25.03016 55.96019 13458 ft 295 kts 277°
2026-05-09 15:14 25.03469 55.93824 12713 ft 291 kts 277°
2026-05-09 15:14 25.03924 55.91684 12049 ft 283 kts 278°
2026-05-09 15:14 25.04378 55.89594 11370 ft 277 kts 279°
2026-05-09 15:15 25.04829 55.87546 10703 ft 273 kts 279°
2026-05-09 15:15 25.05276 55.85533 10052 ft 267 kts 280°
2026-05-09 15:15 25.05715 55.83565 9410 ft 261 kts 281°
2026-05-09 15:15 25.06148 55.81634 8703 ft 258 kts 282°
2026-05-09 15:16 25.06572 55.79740 8020 ft 253 kts 283°
2026-05-09 15:16 25.06992 55.77871 7374 ft 248 kts 284°
2026-05-09 15:16 25.07399 55.76060 6674 ft 246 kts 284°
2026-05-09 15:16 25.07804 55.74256 6313 ft 239 kts 285°
2026-05-09 15:17 25.08209 55.72458 6008 ft 245 kts 285°
2026-05-09 15:17 25.08621 55.70627 5797 ft 245 kts 285°
2026-05-09 15:17 25.09035 55.68788 5519 ft 246 kts 285°
2026-05-09 15:17 25.09445 55.66962 5261 ft 245 kts 285°
2026-05-09 15:18 25.09848 55.65165 4858 ft 238 kts 285°
2026-05-09 15:18 25.10380 55.63493 4525 ft 229 kts 296°
2026-05-09 15:18 25.11163 55.61927 4241 ft 235 kts 301°
2026-05-09 15:18 25.11991 55.60430 3924 ft 221 kts 301°
2026-05-09 15:19 25.12762 55.59048 3705 ft 199 kts 301°
2026-05-09 15:19 25.13486 55.57780 3676 ft 193 kts 301°
2026-05-09 15:19 25.14173 55.56525 3561 ft 184 kts 301°
2026-05-09 15:19 25.14814 55.55379 3185 ft 167 kts 302°
2026-05-09 15:20 25.15379 55.54360 2901 ft 147 kts 300°
2026-05-09 15:20 25.16432 55.52490 2571 ft 143 kts 301°
2026-05-09 15:20 25.16939 55.51556 2454 ft 144 kts 300°
2026-05-09 15:21 25.17465 55.50581 2177 ft 148 kts 300°
2026-05-09 15:21 25.17991 55.49623 1941 ft 143 kts 301°
2026-05-09 15:21 25.18496 55.48712 1836 ft 136 kts 302°
2026-05-09 15:21 25.18996 55.47795 1620 ft 140 kts 302°
2026-05-09 15:22 25.19495 55.46882 1484 ft 138 kts 301°
2026-05-09 15:22 25.19995 55.45983 1275 ft 139 kts 301°
2026-05-09 15:22 25.20499 55.45047 1113 ft 148 kts 300°
2026-05-09 15:22 25.21057 55.44063 959 ft 155 kts 301°
2026-05-09 15:23 25.21618 55.43053 755 ft 153 kts 301°
2026-05-09 15:23 25.22178 55.42052 546 ft 151 kts 300°
2026-05-09 15:23 25.22714 55.41081 374 ft 149 kts 301°
2026-05-09 15:23 25.23271 55.40065 212 ft 157 kts 300°
2026-05-09 15:24 25.23841 55.39034 36 ft 153 kts 301°
2026-05-09 15:24 25.24345 55.38120 31 ft 123 kts 302°
2026-05-09 15:24 25.24729 55.37434 27 ft 87 kts 302°
2026-05-09 15:24 25.24983 55.36976 30 ft 52 kts 301°
2026-05-09 15:25 25.25131 55.36708 28 ft 37 kts 301°
2026-05-09 15:25 25.25192 55.36597 27 ft 7 kts 300°
2026-05-09 15:25 25.25205 55.36538 26 ft 10 kts 266°
2026-05-09 15:26 25.25088 55.36420 26 ft 11 kts 216°
2026-05-09 15:26 25.25077 55.36340 29 ft 11 kts 293°
2026-05-09 15:26 25.25118 55.36264 26 ft 11 kts 301°
2026-05-09 15:26 25.25159 55.36190 26 ft 11 kts 301°
2026-05-09 15:27 25.25202 55.36113 26 ft 12 kts 301°
2026-05-09 15:27 25.25250 55.36025 28 ft 15 kts 301°
2026-05-09 15:27 25.25323 55.35899 29 ft 26 kts 302°
2026-05-09 15:27 25.25414 55.35742 30 ft 6 kts 302°
2026-05-09 15:28 25.25418 55.35723 30 ft 3 kts 268°
2026-05-09 15:28 25.25397 55.35698 31 ft 11 kts 221°
2026-05-09 15:28 25.25352 55.35628 30 ft 9 kts 233°
2026-05-09 15:28 25.25308 55.35591 31 ft 5 kts 213°
2026-05-09 15:29 25.25288 55.35577 29 ft 2 kts 212°
2026-05-09 15:29 25.25284 55.35574 29 ft 0 kts 212°